GFSMW_850_spd_018.txt.gz
Wind_Speed
16 13 11 7 5 8 9 7 11 7 4 2 5 6 5 7 7 9 14 16 15 23 26 27 24 24 26 25 26 30 32 33 29 31 32 33 33 33 34 34 37 35 34
18 16 14 14 11 10 7 6 3 4 6 0 3 6 7 9 11 12 8 13 24 24 26 24 25 24 26 29 30 25 27 28 25 27 31 33 33 29 31 35 38 40 41
15 14 13 11 11 12 11 8 6 5 3 3 2 5 9 9 11 16 23 26 19 23 23 20 23 26 27 30 33 31 26 29 26 23 24 29 29 28 28 32 28 27 34
12 12 10 8 9 9 8 6 6 4 6 8 7 10 8 11 15 15 16 19 21 20 20 24 26 28 30 32 33 23 25 28 28 29 25 26 28 21 27 29 28 32 29
10 9 9 9 9 8 6 4 4 6 9 14 14 15 17 17 16 17 20 20 18 22 28 26 28 31 33 23 21 19 18 19 18 19 28 31 32 32 23 26 21 26 25
7 6 6 6 6 5 6 7 8 9 11 12 16 14 14 15 16 17 18 18 24 31 29 27 27 23 20 20 23 25 27 28 29 23 23 29 27 26 26 29 35 31 30
6 6 6 6 4 5 8 9 10 12 13 14 12 12 14 14 15 17 21 27 28 25 27 23 19 19 23 26 28 27 26 25 22 25 22 20 21 22 22 17 19 19 27
4 3 4 6 6 9 11 11 10 12 14 15 14 13 14 14 16 20 26 24 24 22 20 25 25 24 20 18 22 19 21 20 26 26 17 16 13 11 14 14 13 19 17
3 3 6 6 7 9 11 12 12 15 15 18 19 16 16 19 23 25 25 21 19 21 21 21 19 23 21 23 24 27 32 33 20 19 18 15 14 13 14 16 14 12 13
6 9 10 9 9 10 10 12 14 16 16 15 15 16 19 19 23 25 20 19 24 30 26 20 20 21 22 25 26 27 26 18 21 17 16 14 15 17 17 18 19 19 19
8 10 12 9 10 13 13 15 18 17 15 15 16 18 21 22 21 16 20 26 31 28 20 22 26 27 26 25 22 21 21 21 20 21 21 20 17 19 19 18 21 21 22
11 12 11 11 16 16 17 18 16 13 15 17 20 22 21 20 19 23 28 24 21 21 22 23 26 25 24 23 22 22 22 22 19 21 23 24 24 23 22 21 21 22 23
11 11 13 16 21 21 19 16 14 17 16 19 21 22 21 20 22 21 20 19 19 21 23 25 25 26 25 23 22 22 18 18 20 25 24 24 24 25 24 24 26 26 26
13 12 14 20 20 18 16 15 19 18 19 18 20 21 21 23 19 19 20 19 20 22 24 23 23 23 23 23 22 20 24 28 34 32 26 27 26 26 27 25 24 25 24
12 16 18 17 17 18 18 21 22 23 21 23 22 21 24 21 17 18 18 18 20 21 21 22 22 23 24 23 24 28 30 32 35 36 31 25 24 26 27 28 29 27 31
14 15 16 17 18 20 23 24 26 28 22 23 25 30 23 20 16 21 16 18 20 20 22 21 22 22 21 24 28 31 33 34 35 38 28 23 26 24 25 23 25 26 27
17 17 16 19 19 21 24 28 28 30 29 30 27 27 27 19 20 16 14 15 19 20 21 22 21 20 20 24 31 33 33 35 36 27 25 27 25 25 23 22 23 22 18
15 15 18 19 21 25 27 27 28 31 34 34 36 23 27 19 17 16 12 14 16 19 22 21 20 23 29 31 31 34 31 34 29 25 27 26 27 26 27 29 29 27 27
16 18 21 24 26 24 26 27 32 33 33 33 27 38 28 19 19 12 13 12 17 20 19 19 24 28 32 30 27 27 32 29 30 29 23 24 25 24 22 24 25 24 23
20 23 25 26 24 25 27 29 29 32 34 31 26 24 20 15 19 22 8 15 17 17 22 26 29 31 30 24 25 26 27 27 28 31 27 25 23 26 25 21 20 19 22
23 25 27 26 25 26 28 27 29 31 28 30 30 31 30 29 22 11 12 14 18 19 25 30 30 28 24 23 23 26 24 24 30 29 27 23 22 23 26 27 28 27 25
25 27 28 27 26 26 26 26 27 27 29 30 29 27 23 12 13 12 14 16 17 19 25 27 27 25 20 22 25 22 22 29 25 26 24 25 25 21 22 19 13 16 17
27 28 26 27 30 27 25 25 24 25 25 25 23 22 19 13 15 13 15 16 16 19 24 23 24 25 27 25 21 27 29 23 25 22 22 14 16 18 13 14 13 13 11
27 25 28 29 27 26 23 22 24 27 19 21 20 17 16 14 13 11 13 15 17 23 24 23 25 27 28 25 25 25 24 24 22 19 15 14 16 13 10 12 12 10 9
25 29 27 26 28 29 26 26 24 18 17 20 16 13 13 12 16 15 13 15 18 21 21 22 23 26 28 28 23 22 23 23 21 14 15 15 16 15 15 15 11 11 11
28 27 27 28 27 27 27 27 18 17 22 17 14 16 15 15 15 9 14 16 18 17 20 20 23 26 26 29 22 20 20 16 18 12 14 15 16 16 17 17 15 14 15

GFSMW_850_spd_021.txt.gz
Wind_Speed
24 20 18 15 10 8 6 7 8 6 4 4 5 5 5 3 5 9 11 11 12 17 24 24 21 24 29 26 29 32 33 32 30 35 36 35 33 32 27 23 26 28 32
22 19 15 13 11 8 6 6 3 1 3 3 3 4 5 3 4 6 6 9 12 15 18 21 26 27 25 29 30 31 34 36 27 27 29 28 32 30 24 22 25 25 22
22 16 15 14 10 8 5 3 4 4 1 2 3 5 8 10 12 14 19 21 23 23 23 27 25 25 31 31 32 33 30 26 28 26 23 19 18 31 32 32 30 32 35
21 16 11 9 9 9 7 8 8 12 15 16 17 16 16 15 14 15 18 21 24 25 26 26 29 34 29 29 27 21 22 25 26 24 24 24 27 17 26 26 29 28 28
17 14 8 5 6 6 7 6 6 12 14 16 17 17 12 12 13 16 20 22 22 25 27 29 27 26 22 20 22 21 25 28 30 29 28 31 31 29 29 32 29 36 32
12 7 6 6 5 5 7 5 2 5 11 7 5 9 12 15 18 22 26 28 30 30 27 21 23 23 26 26 27 28 29 29 27 27 26 25 24 22 20 25 32 33 32
14 14 15 10 7 4 2 1 7 8 10 15 18 16 16 19 20 22 25 29 29 24 26 27 30 29 25 26 27 25 27 24 26 27 28 25 21 18 14 13 17 20 27
8 6 4 2 4 2 4 9 13 14 15 14 15 18 20 19 20 22 26 27 21 22 22 32 28 23 25 24 22 24 27 26 28 27 19 21 20 19 16 16 16 20 21
13 11 8 8 3 3 6 9 7 7 11 14 13 13 15 20 23 26 26 24 19 23 32 32 21 23 27 28 27 26 26 23 22 21 21 20 18 17 17 16 14 18 18
16 13 9 6 5 8 10 12 13 15 13 13 14 16 20 22 23 23 24 20 23 33 29 23 19 23 27 26 23 22 20 21 21 20 20 20 21 23 20 17 16 18 23
14 11 8 8 10 13 14 16 17 16 12 14 19 26 25 23 22 24 26 29 31 34 21 21 22 22 24 23 23 23 23 23 20 16 15 17 20 23 24 23 21 18 20
10 9 9 7 11 17 19 18 13 13 18 24 26 27 28 23 24 26 29 32 29 27 18 19 24 25 24 23 22 22 24 23 19 17 21 27 32 28 22 21 23 24 25
7 6 7 12 21 20 16 15 16 23 28 28 30 26 26 29 28 29 31 28 25 24 19 20 23 24 24 24 25 25 24 23 26 31 34 33 30 30 29 26 26 27 25
8 8 14 20 16 16 16 19 22 23 27 32 24 25 31 28 30 30 23 25 26 21 18 18 20 24 24 24 23 24 28 32 34 33 33 34 33 28 26 26 26 27 30
11 18 19 16 17 16 18 20 22 27 26 26 31 35 31 30 26 29 42 26 19 14 16 17 20 22 23 25 28 31 33 36 38 36 36 36 29 22 20 22 22 22 22
15 17 15 15 18 21 22 24 23 17 20 27 31 30 31 24 30 33 19 15 15 11 16 19 19 21 24 26 28 30 35 36 35 32 34 31 26 22 22 22 21 20 21
16 15 16 17 19 23 22 13 17 23 27 27 28 28 34 35 28 25 26 12 9 11 15 19 18 19 23 26 29 34 31 28 28 30 31 30 25 23 24 26 26 26 25
13 16 17 20 21 15 16 21 25 28 27 28 29 32 33 31 32 30 22 10 13 11 15 15 17 23 24 28 30 26 26 28 27 27 28 29 26 23 23 22 23 24 22
14 15 19 19 18 20 22 26 28 26 27 24 27 31 35 40 35 25 20 22 9 12 11 17 22 27 27 27 24 26 28 27 29 27 29 26 25 21 21 22 21 22 22
15 17 19 19 22 22 26 27 28 24 22 24 29 31 34 25 26 15 15 11 9 14 20 22 25 26 27 24 23 25 24 23 26 32 33 25 20 20 18 23 23 25 25
16 17 20 21 22 27 31 27 20 23 26 30 34 35 24 22 12 12 10 11 15 17 19 21 25 25 26 25 27 28 25 26 30 31 27 22 21 21 19 20 21 19 15
17 19 21 22 26 27 21 18 24 25 28 33 33 25 22 17 16 15 12 9 12 16 20 24 27 26 24 25 25 25 26 22 22 25 21 18 19 16 17 14 13 14 13
20 21 22 27 23 17 22 23 25 28 34 32 25 24 15 13 10 11 8 13 17 20 23 25 25 25 26 27 28 24 21 20 21 19 16 13 18 16 11 10 11 10 8
17 20 23 21 22 23 23 27 31 35 33 27 25 15 11 11 12 13 16 18 19 20 22 21 22 24 26 28 29 27 23 21 21 15 14 16 15 11 14 13 9 11 11
22 22 23 24 26 28 31 32 30 28 29 24 23 15 15 16 16 16 12 15 19 20 18 19 19 24 25 28 23 23 23 20 19 15 15 16 16 15 16 15 13 13 13
25 26 27 28 29 32 35 25 25 25 26 24 21 18 16 10 10 13 13 14 15 13 16 17 20 23 23 27 24 20 19 14 18 16 14 16 17 17 16 15 15 16 16

GFSMW_850_spd_024.txt.gz
Wind_Speed
32 30 30 27 24 21 20 15 14 15 15 14 12 9 9 4 2 3 3 7 10 13 18 23 25 25 26 25 26 30 35 36 37 39 36 35 32 22 26 25 20 26 28
27 23 19 18 17 18 16 15 13 11 9 5 4 2 0 3 5 8 10 13 17 21 24 25 26 26 28 29 32 34 32 29 26 29 33 22 35 23 20 25 26 31 30
25 21 17 14 12 10 9 10 11 10 8 4 1 3 6 10 14 18 21 24 26 27 27 27 29 30 30 27 23 22 21 21 20 23 24 18 15 35 28 30 29 27 28
22 18 15 12 8 8 7 6 7 9 10 10 12 14 15 17 22 22 20 20 22 25 28 30 27 24 26 24 22 20 21 23 25 25 26 28 29 24 33 26 33 29 28
18 16 12 10 8 6 6 8 10 11 12 15 15 14 15 16 16 15 18 21 27 30 30 24 26 32 33 25 19 21 21 20 20 19 22 25 25 25 25 28 19 31 27
15 12 9 6 5 4 4 2 4 6 9 12 15 15 16 16 18 20 24 27 30 31 26 27 31 37 29 24 24 26 24 23 25 25 24 25 23 20 18 24 30 21 24
11 8 7 5 3 3 2 2 7 9 9 11 14 15 16 16 18 17 21 28 28 27 25 25 30 28 23 20 22 23 23 24 24 24 23 21 20 21 26 22 25 27 29
13 12 12 11 8 5 1 4 10 14 17 20 21 20 20 22 23 27 31 32 30 27 22 27 32 23 20 20 22 22 21 19 17 19 18 18 19 18 19 20 23 26 24
12 14 18 13 9 4 5 7 9 12 15 18 18 18 21 26 30 31 30 31 29 26 25 28 27 21 18 20 21 22 21 20 17 18 17 17 17 18 19 22 25 22 21
16 13 10 6 4 6 8 12 14 14 12 12 16 21 27 29 31 33 31 32 31 28 27 28 26 17 18 19 19 18 16 16 18 20 20 17 16 18 21 23 22 24 23
13 9 6 3 4 8 15 13 11 7 11 18 23 25 29 32 30 27 27 30 31 30 25 27 22 20 21 21 20 20 20 21 22 20 18 21 25 30 32 30 26 21 21
13 11 3 6 12 14 12 12 10 14 19 22 25 28 29 27 33 33 32 32 32 32 30 27 21 22 21 20 21 22 24 24 21 23 26 31 34 34 31 28 27 26 26
7 2 5 12 14 11 9 8 12 15 18 20 21 20 24 28 32 32 31 32 30 19 18 20 23 19 20 22 21 23 23 25 28 31 33 35 34 34 32 29 28 27 26
2 6 11 11 7 8 11 16 18 20 23 24 17 20 28 29 26 23 23 29 35 38 17 17 17 19 23 22 22 23 26 28 30 33 35 31 29 30 26 24 23 23 26
6 11 10 8 8 11 16 14 17 19 19 20 25 29 29 26 33 25 26 28 29 24 18 11 16 19 20 21 21 24 26 31 34 31 27 27 27 26 21 21 21 18 22
9 6 6 8 10 14 14 14 13 17 24 28 29 28 28 33 33 34 36 32 26 22 5 10 15 19 16 19 24 28 31 31 27 26 27 27 27 26 23 20 21 24 24
4 7 9 11 11 11 10 15 20 25 25 24 23 24 31 33 37 40 29 24 23 10 5 11 13 14 20 23 27 28 26 26 26 27 27 29 26 28 21 20 20 20 20
6 8 10 10 10 12 16 19 22 18 19 21 25 30 33 37 39 26 19 15 10 9 7 10 15 19 22 26 27 26 24 26 28 27 27 27 29 22 20 19 22 19 18
7 7 10 11 13 15 18 22 20 20 21 26 29 30 33 33 22 11 10 10 6 6 9 15 17 22 25 26 26 27 28 27 26 28 28 24 22 20 17 20 20 19 19
3 7 11 15 19 22 25 27 23 19 25 28 27 32 28 22 13 12 8 9 6 9 12 14 20 23 24 24 25 25 27 27 27 25 23 20 17 17 17 18 19 22 23
7 12 17 20 21 25 27 23 18 24 27 26 30 25 21 18 11 11 10 9 9 6 12 18 22 22 23 24 24 26 22 21 21 22 19 17 16 18 18 18 17 16 15
10 14 16 19 21 20 20 23 26 27 29 31 27 22 23 15 12 10 10 7 7 12 17 19 19 20 21 22 27 24 18 17 17 19 16 16 19 19 12 11 11 11 10
12 14 18 19 17 21 24 25 27 30 32 28 26 23 16 11 10 10 12 13 14 15 17 18 18 18 21 22 25 26 23 17 17 17 14 18 16 11 12 12 9 9 9
17 20 21 22 22 23 25 27 29 31 24 25 26 23 17 15 14 14 14 13 14 16 16 15 15 18 21 23 26 27 24 20 18 19 16 15 14 12 12 10 11 10 9
19 20 21 21 23 25 27 30 32 23 19 23 24 21 16 14 9 7 10 13 15 14 12 14 16 19 21 23 23 21 20 17 19 18 14 14 15 15 15 12 12 12 13
19 20 19 21 23 25 29 30 27 20 22 22 17 19 15 12 7 8 12 12 11 9 11 14 15 17 20 22 20 18 19 18 17 15 13 14 15 16 15 14 12 12 14

GFSMW_850_spd_027.txt.gz
Wind_Speed
22 21 20 17 19 23 23 19 13 9 7 7 7 8 7 3 3 5 7 10 13 16 21 24 27 31 33 32 34 35 34 32 30 33 35 35 13 20 24 20 21 26 25
29 27 26 22 18 16 8 7 6 5 3 3 1 1 2 5 7 11 14 18 21 25 27 28 32 33 31 30 28 27 27 26 24 26 30 19 34 17 27 32 22 30 30
26 22 18 12 11 14 14 12 11 7 4 1 3 5 9 12 14 17 20 20 22 24 26 30 29 25 24 27 26 23 23 24 24 24 19 17 13 38 28 36 28 33 31
21 18 15 16 14 13 11 8 7 7 7 9 10 10 12 15 16 17 18 20 23 27 31 31 26 26 29 32 25 21 20 20 19 18 19 21 24 21 25 19 29 28 28
21 20 18 16 13 8 5 4 3 1 3 6 11 12 12 13 14 14 16 22 29 30 31 27 27 28 31 28 25 24 21 19 20 21 24 24 24 22 21 26 16 25 28
17 16 15 14 12 9 3 2 2 4 8 12 14 14 14 14 14 16 21 26 26 28 28 27 27 27 28 26 23 23 20 19 20 20 19 19 18 23 24 27 34 30 33
19 19 17 13 11 7 4 3 4 9 12 13 13 14 14 14 16 21 25 26 31 30 29 27 25 26 28 23 21 21 21 21 18 16 18 18 18 19 20 19 23 23 27
14 12 10 9 6 7 3 4 9 12 14 13 14 13 13 17 23 26 28 29 31 32 30 29 24 24 24 21 19 20 19 16 15 15 16 19 19 19 21 19 21 26 20
13 12 10 9 7 3 3 7 11 14 15 13 13 16 20 24 26 28 28 30 30 29 28 27 25 21 21 19 18 18 16 16 15 16 17 20 20 19 18 18 21 19 21
17 16 13 9 5 2 8 12 14 11 9 10 14 18 20 24 26 25 27 27 27 29 31 25 21 20 20 18 18 18 20 20 21 21 20 20 20 22 25 30 31 28 25
18 15 12 6 1 7 10 8 3 4 9 14 17 18 19 20 21 24 28 28 29 28 23 19 18 18 15 21 19 20 21 22 22 22 20 23 27 30 32 32 31 29 26
15 9 5 3 5 6 5 2 5 9 13 17 20 19 16 16 22 26 27 26 25 26 30 35 36 22 12 19 20 21 22 22 23 24 26 29 31 35 32 29 29 28 27
11 7 2 2 2 1 3 6 11 14 19 21 19 17 21 27 28 25 30 31 26 27 30 31 29 14 14 17 20 22 23 23 24 26 31 34 33 30 28 27 27 25 25
7 2 2 3 3 5 7 10 13 16 17 17 20 26 29 29 28 28 30 32 34 30 31 29 24 14 12 17 21 20 21 24 28 32 32 29 26 26 27 27 26 24 22
3 3 3 3 4 6 10 13 14 13 18 23 28 29 27 25 26 31 37 35 26 21 22 22 10 11 11 19 16 22 27 30 31 29 27 26 26 24 25 25 25 24 24
3 1 3 4 7 10 10 9 13 19 24 28 27 23 22 26 31 36 34 26 20 18 21 12 6 10 14 16 23 27 29 28 28 29 28 27 26 27 25 28 23 22 22
4 3 5 6 6 6 9 14 18 24 26 22 20 20 26 29 34 32 25 18 12 10 8 6 7 10 18 21 24 26 25 26 27 28 27 27 27 27 24 21 18 17 20
6 6 4 5 5 9 13 18 23 23 18 16 20 24 29 33 31 24 12 9 6 8 5 5 10 17 19 23 24 26 26 26 27 26 24 23 22 21 20 20 23 23 20
8 6 4 7 10 13 19 22 21 19 13 20 26 29 33 31 24 15 12 11 10 10 7 13 14 19 22 22 22 24 28 29 24 20 20 19 18 16 18 21 22 21 21
6 4 6 9 14 17 20 19 18 16 22 27 28 30 27 23 21 15 13 12 10 7 12 12 18 21 20 21 22 25 27 25 22 19 18 15 15 19 20 22 21 21 19
6 6 8 12 17 20 19 18 22 23 25 26 27 24 22 24 17 12 11 10 11 9 11 16 18 18 18 20 22 25 23 21 21 20 19 17 19 21 17 16 15 16 19
6 8 12 17 19 19 20 21 23 23 26 26 22 21 21 21 15 13 10 8 9 13 15 16 15 15 16 18 22 22 21 18 19 19 19 19 20 17 16 16 14 14 14
7 11 16 18 18 18 19 22 24 26 27 23 20 21 21 20 16 15 14 13 12 13 14 13 12 13 15 17 21 21 22 22 19 20 20 18 18 16 14 11 11 12 12
10 15 17 18 19 19 20 22 25 28 26 16 18 20 21 18 16 13 11 11 12 13 12 11 12 13 15 18 20 22 22 24 21 20 18 17 16 14 13 10 11 13 11
14 16 17 19 19 20 21 24 27 22 22 18 20 21 18 17 13 10 10 12 14 14 11 11 12 13 14 17 19 17 21 22 22 19 16 15 14 15 13 12 12 13 14
15 16 18 20 20 22 24 24 24 18 20 23 21 19 17 14 14 12 11 14 16 11 11 12 12 12 14 17 18 18 19 20 19 18 16 15 16 16 16 16 14 13 13

GFSMW_850_spd_030.txt.gz
Wind_Speed
11 11 10 13 19 20 21 25 16 13 3 9 5 1 6 5 4 5 8 12 17 20 21 25 28 31 33 31 31 31 31 30 31 32 34 32 17 17 26 16 21 31 28
13 12 11 10 10 11 9 5 8 12 9 2 4 6 7 9 12 13 11 17 20 19 23 27 30 29 27 26 27 27 26 25 27 27 29 16 25 11 20 32 26 26 26
25 22 16 12 8 12 16 15 12 9 6 6 7 6 7 9 12 14 14 17 17 21 25 27 27 26 26 25 26 25 24 24 21 20 18 11 9 25 14 28 23 27 30
18 12 9 13 16 16 14 10 9 7 4 6 7 9 9 11 11 12 14 14 18 24 25 29 27 25 25 24 25 23 21 19 18 18 16 16 19 14 19 16 26 25 29
14 15 16 15 14 11 8 5 2 2 1 4 7 9 10 10 10 10 11 17 21 24 25 26 25 27 26 27 29 26 23 20 21 20 21 21 21 17 19 27 25 21 21
16 18 17 13 10 9 3 3 5 2 6 9 11 12 11 10 9 12 17 22 22 25 26 28 29 30 28 26 25 23 20 19 20 18 18 18 21 22 20 20 24 26 27
19 20 20 19 12 10 8 5 4 5 7 10 11 10 8 10 14 18 21 20 21 25 25 28 27 28 24 21 18 22 19 19 20 19 20 19 20 22 24 23 20 17 28
18 19 19 16 13 12 9 7 3 7 10 11 8 7 10 14 17 19 20 20 22 24 24 26 28 25 22 17 20 18 19 19 19 18 19 20 20 21 21 19 21 27 25
21 20 18 16 14 12 8 3 8 10 10 6 7 11 14 16 18 19 20 21 24 24 25 26 27 20 17 18 19 17 20 18 17 17 20 20 20 21 21 23 25 25 26
20 20 19 17 13 8 4 7 8 6 4 7 10 13 16 18 19 18 19 22 23 24 28 27 26 31 33 29 20 16 17 18 17 18 18 19 20 22 27 30 31 31 29
23 22 19 14 9 6 4 8 8 5 7 10 15 18 18 17 16 21 21 21 24 27 27 24 26 27 29 27 18 13 17 18 19 19 21 21 25 30 33 34 33 30 27
20 16 12 7 4 3 8 8 7 7 11 14 15 13 14 19 23 21 23 26 29 33 30 25 26 27 23 21 14 14 18 19 20 22 25 29 33 36 34 30 29 28 25
16 11 7 5 4 5 4 7 7 10 12 12 13 17 21 22 22 24 27 30 34 33 27 21 22 23 23 17 15 13 20 19 22 28 31 35 34 32 30 29 30 29 28
13 9 5 4 4 4 6 7 10 11 12 14 19 23 22 21 23 28 32 35 33 27 21 17 17 19 17 12 12 15 18 25 29 32 33 32 31 30 30 29 30 29 27
10 6 5 4 5 7 8 9 9 10 15 21 23 19 18 21 27 32 36 33 27 23 17 15 17 11 6 10 11 17 25 29 32 32 32 30 30 27 26 27 28 29 30
10 7 7 7 7 7 8 7 10 15 21 21 17 17 19 25 30 33 31 27 21 13 9 7 6 5 8 11 18 23 28 28 29 30 31 30 28 26 24 26 25 22 24
11 10 9 6 6 7 8 10 15 19 19 18 18 18 24 28 30 28 26 19 15 9 10 7 7 8 11 17 23 25 25 25 27 29 26 23 21 20 20 18 18 20 21
11 10 7 7 6 7 9 13 16 18 17 16 16 23 26 29 27 23 22 18 17 15 13 8 10 13 17 23 24 24 24 25 25 23 21 21 19 16 17 25 24 22 22
10 9 8 6 7 9 12 17 18 17 14 18 22 25 27 27 25 24 19 16 16 17 12 11 15 16 21 23 21 21 23 24 23 20 19 18 18 17 21 23 23 20 18
11 10 8 8 8 12 16 19 18 17 17 20 24 26 25 24 24 21 16 15 14 13 12 15 15 20 21 20 20 21 23 24 23 21 20 18 18 19 20 20 22 20 21
12 10 8 8 11 15 17 17 16 17 20 23 26 25 22 22 23 19 15 14 14 13 12 15 19 20 18 17 18 20 20 21 24 22 22 21 18 19 19 18 17 19 21
10 10 8 10 14 16 16 15 17 20 22 25 26 21 20 21 21 19 17 15 14 14 15 17 17 15 14 16 18 19 18 20 22 22 21 20 19 19 17 15 15 17 17
10 7 9 13 15 15 16 17 19 21 25 26 23 17 21 22 20 19 17 15 14 14 16 16 15 13 13 15 17 19 17 20 21 21 20 18 18 17 15 13 13 15 16
6 9 13 15 15 16 17 19 21 23 24 21 20 18 22 22 19 17 14 13 14 15 15 14 13 12 13 14 16 18 19 20 20 20 20 18 16 16 15 15 13 14 15
8 12 14 15 17 18 19 21 23 24 22 18 19 22 22 21 18 16 15 16 16 17 16 13 12 13 13 14 16 15 18 19 20 19 18 17 16 16 16 15 15 15 13
11 12 14 16 18 19 21 22 24 23 21 20 20 22 20 17 17 17 17 14 16 18 14 14 13 13 14 13 13 15 17 18 18 17 17 17 17 17 17 18 17 17 15

GFSMW_850_spd_033.txt.gz
Wind_Speed
14 13 13 12 13 15 15 17 21 14 4 3 12 12 6 3 2 4 6 5 7 10 13 18 23 24 24 25 25 23 25 26 27 26 22 15 7 14 16 13 23 26 26
9 7 6 5 5 3 7 10 9 14 12 12 9 5 1 2 5 5 5 7 10 14 19 22 24 24 23 24 25 24 26 25 25 21 14 9 14 6 18 20 18 20 25
15 15 15 15 17 20 20 18 17 15 14 10 6 3 3 4 7 8 8 9 14 17 21 23 21 21 23 25 26 26 26 23 19 17 9 9 8 22 8 19 14 22 20
23 20 18 25 27 24 20 17 15 12 8 4 2 4 7 8 8 8 8 12 15 19 20 20 20 22 23 24 24 24 21 19 16 17 11 11 12 11 14 11 19 14 21
17 20 24 23 21 19 15 12 11 11 7 5 5 6 7 7 6 7 10 15 18 18 21 21 22 22 24 26 23 18 16 16 14 11 11 12 11 12 14 23 21 21 19
18 22 22 21 19 19 17 16 14 9 6 5 5 6 7 6 6 10 14 17 19 21 21 21 22 23 25 23 18 15 15 16 16 15 14 13 15 16 16 20 21 25 22
21 23 24 22 18 15 12 12 10 6 4 6 6 6 5 8 10 13 14 16 17 18 19 21 23 25 24 22 19 18 26 17 17 17 17 18 17 18 19 19 21 23 27
21 22 20 17 14 9 11 10 7 5 5 5 4 3 7 9 11 13 16 17 18 20 25 25 27 29 28 29 25 28 24 17 18 19 19 20 19 20 19 17 19 26 30
23 22 19 17 12 12 11 9 7 5 2 1 3 7 9 11 14 16 17 17 22 25 25 25 27 26 25 26 24 27 23 20 17 19 19 19 19 20 20 22 21 22 33
21 21 19 16 15 15 11 7 3 2 2 4 7 9 11 14 15 15 20 23 23 25 27 30 29 23 23 26 23 24 28 13 16 18 19 20 22 23 24 26 27 24 28
21 21 19 17 16 11 7 2 2 2 3 7 9 11 12 13 17 22 21 23 26 29 32 31 27 21 20 26 16 23 14 16 17 18 22 21 24 25 23 23 23 22 23
18 18 18 16 12 8 5 2 2 7 8 8 9 10 14 19 23 21 21 24 29 32 31 27 24 18 19 22 23 19 17 17 17 20 23 27 26 27 23 23 23 23 23
20 20 17 14 11 7 4 2 12 6 9 9 11 15 20 21 18 18 22 29 33 30 27 23 17 15 17 17 13 15 13 15 17 22 28 30 26 25 24 24 25 24 22
22 19 16 13 9 6 5 10 7 8 7 10 16 19 17 15 16 22 28 31 29 25 22 16 13 14 11 6 8 11 13 18 24 28 30 30 26 23 24 24 22 22 22
22 18 15 12 8 5 7 8 6 5 9 15 18 16 15 15 21 27 29 27 23 20 18 13 9 7 6 7 10 15 19 25 27 27 28 29 29 26 22 19 20 21 23
22 18 14 11 9 7 7 6 5 9 13 16 16 16 15 18 25 27 25 23 20 16 13 11 9 6 8 11 16 20 25 25 25 27 28 26 22 18 20 17 15 16 19
21 17 14 10 8 7 6 6 8 12 15 15 14 12 17 23 25 24 23 23 19 16 15 14 9 10 12 16 20 25 23 23 24 25 25 21 17 17 16 16 21 22 21
19 16 13 11 10 9 8 8 10 14 15 12 11 17 21 23 23 23 22 21 18 16 15 16 11 13 16 19 24 23 22 22 23 23 21 18 17 16 17 22 21 18 18
17 14 13 12 11 9 7 9 13 15 13 12 15 19 21 23 23 22 20 18 15 15 14 12 13 16 17 23 23 21 21 22 22 21 17 16 17 17 18 20 20 20 18
16 15 13 13 10 7 9 12 14 13 13 14 17 20 22 23 22 21 20 16 14 15 15 15 16 16 21 21 20 20 21 21 20 19 17 18 18 16 18 18 18 18 19
15 14 12 9 6 8 12 14 14 14 15 17 19 22 23 21 22 22 21 17 15 14 14 14 16 20 20 19 18 18 19 17 18 19 20 19 19 17 17 15 13 17 21
16 10 8 7 8 11 14 14 14 16 17 19 22 22 21 18 20 24 21 19 16 15 15 16 18 19 17 17 17 18 18 18 18 19 21 20 18 18 18 17 16 17 18
9 7 7 8 11 13 13 13 14 17 19 21 22 22 20 19 20 22 20 18 15 15 16 18 18 16 15 16 16 17 17 17 18 19 20 20 18 17 17 16 16 15 16
10 7 11 10 11 11 13 14 16 19 21 22 21 20 21 21 21 21 19 17 15 16 17 17 16 14 15 15 16 17 17 17 18 18 18 18 17 16 15 15 14 14 14
8 11 9 9 10 12 13 16 19 22 23 22 19 18 19 21 22 18 17 17 18 17 16 15 15 14 15 15 15 16 16 17 19 18 17 16 16 16 15 15 15 16 14
10 8 7 9 11 13 16 18 21 22 22 20 17 17 18 20 21 19 20 18 17 16 19 17 15 15 15 15 15 16 15 15 17 17 16 15 15 16 16 16 16 16 17

GFSMW_850_spd_036.txt.gz
Wind_Speed
11 9 13 12 14 18 19 12 11 19 12 4 12 13 11 7 5 4 5 5 5 7 11 12 14 14 13 18 19 16 17 18 17 21 21 20 15 14 15 13 18 16 16
10 9 9 11 13 14 13 11 10 11 12 13 13 11 8 7 7 5 8 7 8 11 13 15 10 13 12 13 14 16 18 18 18 17 20 19 19 16 13 20 15 18 18
11 11 11 12 15 18 16 18 16 18 18 16 13 9 8 5 6 9 9 9 9 10 12 16 18 16 15 15 16 16 16 19 18 16 16 19 18 21 20 20 16 19 20
13 13 15 16 19 22 21 19 20 20 19 17 11 10 4 5 6 6 5 4 10 14 18 20 20 18 16 16 17 18 15 16 19 17 16 16 18 21 23 18 19 21 23
17 16 18 21 20 19 18 18 18 15 16 15 8 5 5 5 4 4 4 7 10 16 17 15 16 16 17 18 18 16 17 16 18 15 17 16 16 16 18 21 22 23 21
17 18 20 19 17 16 15 16 15 14 12 9 7 7 4 4 3 4 6 10 12 14 15 16 17 18 20 20 21 20 19 16 17 16 14 15 16 18 19 20 23 27 25
19 21 20 18 16 15 15 14 12 10 9 8 6 4 4 3 3 5 9 13 16 17 18 19 20 20 21 23 22 21 19 18 18 17 16 14 15 16 18 19 24 27 29
20 21 19 16 15 14 13 12 12 9 7 3 3 3 5 3 5 9 12 13 13 15 16 18 20 21 22 21 20 19 18 17 20 18 17 15 15 16 16 20 22 29 32
21 20 18 17 15 12 13 12 10 7 3 3 7 8 7 9 10 13 13 10 13 15 18 21 23 24 22 21 20 19 19 19 20 21 16 14 16 15 17 19 21 24 32
19 19 18 16 14 13 14 13 9 5 1 5 9 8 10 11 12 13 12 11 14 18 21 24 24 23 21 19 19 18 20 16 17 15 15 16 17 17 20 23 24 26 32
20 19 17 15 14 12 11 11 9 3 5 6 8 10 9 12 13 10 10 12 18 21 23 22 21 20 18 15 19 22 15 14 14 14 15 17 19 22 24 25 27 29 30
19 18 17 17 15 14 13 13 7 4 7 8 7 5 11 11 8 10 13 17 20 22 20 18 17 15 13 13 15 14 10 11 13 15 16 19 22 24 25 26 27 29 30
19 19 19 19 18 15 14 11 3 6 7 7 5 6 7 8 9 12 16 19 20 19 16 15 14 12 11 11 10 8 9 10 12 15 18 21 22 24 23 25 27 26 26
21 20 20 19 17 16 14 7 11 11 8 7 6 8 11 14 13 15 19 19 19 17 14 13 11 10 8 6 6 6 10 13 15 17 18 19 19 21 22 23 22 22 23
21 21 21 19 17 16 13 11 10 10 10 9 9 10 13 14 13 17 19 18 18 14 12 11 9 9 6 4 7 10 13 16 17 16 17 18 20 26 20 18 18 19 20
22 22 21 19 17 16 12 12 11 11 9 9 11 11 13 14 15 19 19 16 14 14 13 12 11 9 6 12 14 16 18 15 15 16 17 17 18 16 22 19 20 17 22
23 23 21 18 16 14 13 12 10 9 10 14 13 13 13 16 15 16 15 15 15 14 13 11 11 10 9 14 17 20 21 15 14 16 17 17 16 20 19 19 20 22 22
22 21 19 17 15 15 12 11 8 11 14 13 11 11 13 13 14 14 14 15 14 13 13 13 11 10 11 17 19 23 17 14 14 15 15 16 17 18 21 20 21 20 19
19 18 16 15 16 11 12 8 11 13 13 9 9 10 12 14 14 14 14 14 14 13 14 12 11 11 11 17 21 21 16 14 15 15 15 16 16 18 19 19 20 19 17
16 16 16 16 15 12 8 11 8 10 9 11 11 12 13 14 14 14 15 15 14 14 14 12 12 13 15 19 20 18 14 14 14 14 15 17 21 22 17 17 18 18 18
17 18 18 17 12 8 11 10 9 9 11 14 14 14 14 15 14 14 15 16 14 13 13 13 12 14 16 15 19 17 16 13 14 14 15 15 21 21 18 18 14 18 21
19 18 17 16 8 10 11 8 8 10 13 14 15 15 14 14 14 14 16 15 14 13 12 13 15 13 16 15 15 15 15 16 15 14 14 17 20 19 17 15 18 18 16
17 17 13 9 9 12 10 9 9 13 14 16 17 14 13 13 13 16 16 15 13 13 12 12 14 13 14 12 16 15 14 16 15 14 17 18 18 17 15 16 15 15 13
14 11 9 8 9 8 10 11 12 13 15 17 15 12 13 13 16 16 15 13 13 12 12 13 14 14 14 12 12 12 12 13 13 14 18 16 16 16 16 12 12 12 14
11 7 7 7 8 9 10 11 13 15 17 15 14 13 12 15 16 15 15 14 13 14 13 14 15 16 14 13 15 14 12 11 13 18 15 12 12 11 10 10 10 10 13
6 5 7 9 11 10 11 13 14 15 16 16 15 12 14 15 16 15 15 17 19 18 17 15 15 16 16 16 17 16 16 16 16 16 11 12 11 11 10 10 10 10 12

GFSMW_850_spd_039.txt.gz
Wind_Speed
18 15 14 14 16 18 19 20 21 15 21 17 13 13 12 11 10 7 4 4 3 2 3 2 7 10 9 12 13 14 17 18 19 22 23 22 20 16 18 17 16 17 19
16 14 14 15 17 20 19 19 17 11 16 10 9 9 10 8 7 6 7 6 5 3 4 8 7 9 12 13 14 17 18 19 19 22 22 24 23 17 12 16 22 21 18
18 16 16 16 17 19 19 19 15 13 13 13 13 12 11 10 8 8 5 7 5 3 5 8 11 11 13 14 16 17 19 22 22 18 21 26 22 25 22 23 23 21 21
18 17 16 17 18 20 18 17 18 15 15 16 12 12 8 7 7 8 8 6 8 5 7 10 11 13 15 17 18 19 22 22 23 22 20 21 21 24 29 21 20 20 22
18 18 17 16 19 20 19 17 17 18 17 14 12 10 7 5 5 6 8 6 8 9 11 12 14 15 18 20 22 23 24 23 23 22 20 20 18 18 20 25 23 23 25
18 18 20 23 22 20 18 18 19 17 15 13 10 8 7 6 6 6 7 8 9 12 13 15 16 19 20 21 23 24 24 26 21 19 20 19 18 18 20 22 24 26 27
20 22 24 23 21 20 18 18 17 16 14 12 10 8 7 6 4 7 7 9 11 12 13 15 17 18 20 21 22 24 24 25 22 18 16 19 19 18 17 20 23 25 28
20 22 23 21 19 18 17 16 16 15 14 13 11 9 7 4 6 7 7 9 10 11 13 16 18 20 22 23 23 23 23 23 21 19 18 18 20 15 16 19 19 26 30
21 23 22 20 19 18 17 17 17 15 15 13 11 6 8 6 7 7 6 7 9 11 14 16 19 21 21 21 20 21 22 21 20 18 15 16 14 14 16 15 19 26 30
22 23 22 20 19 18 17 18 18 17 15 12 7 6 8 7 5 5 7 7 9 12 15 17 18 19 19 19 18 18 19 20 21 13 13 14 16 15 18 21 24 26 31
23 22 21 20 20 18 18 18 18 18 14 9 4 8 8 7 5 5 7 8 11 14 16 17 17 17 17 17 19 16 17 16 14 13 13 15 16 18 21 24 26 28 30
23 22 22 21 21 20 19 20 20 16 11 6 9 6 9 7 7 8 9 10 13 15 16 16 16 16 16 14 13 14 16 13 12 12 13 17 19 21 22 24 25 28 29
24 22 22 22 22 21 21 20 18 14 6 5 5 10 9 8 9 10 10 12 14 15 15 15 15 16 15 13 12 11 8 10 12 15 16 19 19 20 21 22 24 25 26
22 23 22 22 22 21 21 20 17 10 5 6 11 10 10 10 10 10 11 13 15 15 14 14 15 14 12 12 9 9 10 13 15 16 17 17 17 18 19 23 20 21 23
21 23 23 22 22 21 20 19 13 9 9 10 11 9 10 10 10 11 12 14 15 15 14 15 16 13 13 12 11 10 12 14 17 16 15 16 19 26 23 20 21 20 21
20 22 22 22 22 21 20 17 14 12 11 10 9 10 9 10 10 11 14 14 15 15 16 16 16 15 13 18 17 15 17 16 15 15 15 16 17 16 21 20 26 23 21
19 21 22 21 20 20 19 17 14 12 9 9 9 8 10 10 11 13 13 14 15 16 16 19 18 14 14 21 19 18 18 16 13 14 15 16 15 18 18 19 22 22 22
15 17 19 19 18 18 17 16 12 9 10 8 8 9 10 11 13 14 14 14 15 16 15 17 18 15 15 20 20 21 20 13 13 14 15 15 15 17 24 26 20 19 19
13 15 16 17 18 18 17 13 10 9 8 7 7 9 11 13 14 15 16 16 16 16 15 15 17 16 13 20 21 21 19 12 13 13 14 15 16 18 23 23 19 19 19
11 13 15 17 18 18 16 13 9 7 8 8 10 10 12 13 15 16 16 16 16 16 15 14 16 15 14 20 22 20 17 13 12 12 13 16 22 25 24 22 18 19 18
12 13 15 16 16 14 12 8 5 7 8 11 10 11 13 14 14 15 14 15 17 17 19 20 20 16 16 15 22 22 17 12 13 13 12 11 22 22 20 19 17 17 24
10 12 12 13 12 7 2 1 6 5 9 9 11 13 14 14 14 15 14 15 18 18 15 18 19 17 17 18 21 19 15 16 17 13 12 15 19 19 17 16 16 18 16
8 10 12 10 6 3 1 3 4 11 9 13 15 14 14 14 15 16 16 18 17 16 13 14 15 16 14 14 18 18 17 17 15 12 13 17 18 16 15 14 16 16 14
11 10 9 7 5 2 5 4 11 14 14 14 14 14 14 15 15 16 16 18 18 16 15 16 18 17 15 15 14 17 17 17 17 12 14 20 14 16 16 15 12 13 13
8 8 8 4 1 4 10 13 14 13 13 13 14 15 14 14 16 17 17 18 18 19 18 18 16 17 18 16 17 17 16 17 16 19 19 11 12 12 11 11 11 12 12
11 7 4 4 8 11 14 14 13 13 13 14 13 12 15 15 16 18 21 20 22 22 23 22 22 22 22 19 21 21 20 19 19 17 12 11 13 12 11 11 11 11 12

GFSMW_850_spd_042.txt.gz
Wind_Speed
18 21 18 17 21 25 23 19 19 19 19 17 15 14 17 10 12 12 8 6 3 5 5 6 7 11 12 12 13 15 18 19 20 22 27 22 20 18 15 13 11 15 21
25 21 19 19 19 24 22 21 20 15 14 14 12 9 9 9 8 9 9 8 7 7 4 8 7 10 15 15 12 17 22 21 16 23 25 26 26 17 18 21 21 17 21
27 20 20 20 21 22 25 20 21 16 15 10 10 10 10 9 11 9 10 13 8 3 3 7 10 15 15 12 16 18 18 21 26 24 21 25 19 26 25 25 28 28 25
28 23 21 22 21 22 17 16 16 14 14 16 14 12 14 13 12 11 6 11 9 9 6 10 15 16 16 18 18 20 24 28 27 26 24 25 28 24 24 21 23 20 19
24 23 25 24 21 22 21 19 16 19 19 19 15 14 10 14 15 13 14 10 7 12 9 10 11 14 14 16 20 21 20 22 25 26 27 26 24 24 23 25 20 23 22
19 21 23 25 18 21 20 23 21 23 20 17 16 15 13 10 12 11 9 6 9 9 10 14 16 19 22 26 24 26 26 26 26 30 30 23 20 18 20 23 22 22 26
18 19 19 21 24 24 23 23 22 22 20 19 16 15 13 12 12 13 15 14 13 11 14 17 21 23 20 21 23 25 25 25 25 29 25 21 21 19 19 19 21 23 30
17 19 22 25 26 25 23 22 23 21 19 18 16 17 15 14 13 8 12 12 12 15 16 17 15 20 21 23 24 24 23 23 23 23 21 21 17 17 17 15 16 26 30
20 22 24 24 24 23 22 23 23 22 23 19 20 19 16 13 10 15 16 14 12 10 12 16 19 19 20 20 19 19 19 20 21 22 22 15 14 14 15 17 19 20 30
20 23 26 25 24 23 22 21 22 25 23 23 24 19 11 13 15 13 11 12 12 13 13 16 17 17 16 16 20 22 21 21 21 22 16 12 15 16 18 20 21 22 26
23 24 26 25 22 23 23 22 21 24 23 21 20 15 17 17 9 9 11 11 11 12 14 15 16 15 15 19 23 19 15 17 16 17 17 15 15 17 16 17 20 22 23
23 25 26 25 23 23 22 23 22 21 20 20 18 14 17 9 9 10 12 11 12 12 15 16 14 15 17 22 19 15 17 16 12 10 13 16 16 19 21 23 25 27 29
22 25 26 24 25 23 22 21 23 22 20 20 15 11 10 13 10 11 12 14 13 16 17 15 14 15 17 20 14 12 12 9 9 13 16 17 20 22 21 23 26 30 24
20 23 24 24 25 22 21 22 23 20 21 15 12 10 10 13 10 13 14 15 17 17 15 14 14 17 20 15 13 10 8 10 13 15 17 19 18 20 23 29 28 24 24
16 19 18 19 20 20 20 22 21 22 18 14 13 11 12 11 14 14 16 16 16 16 15 14 17 20 20 16 17 18 19 20 19 14 15 15 18 23 22 23 25 26 28
13 12 13 14 17 19 23 20 20 17 13 15 13 11 10 15 12 14 14 15 14 14 15 17 19 21 22 21 23 22 22 21 20 13 15 18 16 17 20 19 21 25 28
8 11 14 16 17 19 20 18 19 16 16 14 10 11 14 11 11 11 12 14 15 17 18 19 20 25 20 24 24 21 20 22 18 13 15 17 14 20 21 25 27 29 21
7 7 10 14 14 16 15 17 18 16 14 7 9 9 10 10 8 11 15 16 17 19 18 17 19 22 22 21 23 20 20 21 18 12 17 16 16 23 26 26 29 26 20
5 7 8 10 11 12 15 15 13 8 8 6 7 7 8 10 13 14 16 19 19 19 19 17 18 19 20 21 23 18 20 23 17 16 13 15 19 23 25 27 28 24 21
6 6 6 8 10 11 11 12 8 8 5 4 7 17 16 13 13 15 18 20 19 19 18 21 22 23 23 23 19 21 24 22 20 13 13 16 18 22 25 27 24 23 20
3 3 6 8 8 9 11 11 10 6 2 4 12 11 12 14 16 19 20 19 17 16 21 24 27 21 21 22 23 23 25 23 20 17 16 10 21 23 23 21 20 18 21
6 11 12 13 13 10 10 8 7 4 2 8 11 17 16 17 16 18 19 17 17 19 19 21 23 21 19 18 20 21 19 19 18 18 18 15 18 19 16 16 15 16 16
10 10 11 12 9 9 5 5 3 7 9 12 18 19 16 15 15 18 19 18 20 25 24 23 23 23 22 18 19 21 18 19 19 17 16 14 16 16 14 14 14 16 18
15 13 11 7 4 3 7 1 6 9 12 17 17 14 14 16 18 19 16 18 20 23 23 23 23 25 23 20 22 22 22 19 18 17 16 19 21 11 13 14 14 16 16
10 7 7 8 5 4 9 7 9 14 16 14 14 15 17 16 16 15 17 21 25 25 24 26 25 26 25 20 21 21 20 14 13 21 24 24 14 13 15 12 13 15 15
6 6 5 4 5 6 9 12 14 16 14 15 16 16 17 18 20 21 23 22 22 23 22 25 26 25 26 26 27 26 24 24 24 25 24 21 13 14 17 15 11 15 15

GFSMW_850_spd_045.txt.gz
Wind_Speed
29 26 25 28 33 29 24 24 25 27 25 23 18 18 18 19 18 17 15 11 7 5 3 7 8 8 12 15 15 16 20 24 24 27 32 34 21 23 11 15 16 19 19
32 28 29 31 33 31 28 27 26 25 22 20 16 14 15 15 10 12 11 10 8 5 7 9 11 12 16 18 18 19 22 22 21 26 33 24 33 21 15 18 25 30 28
35 34 30 24 30 34 34 24 22 16 19 16 16 15 13 14 15 13 11 9 8 8 8 11 14 17 18 19 21 21 22 23 25 26 23 22 18 32 29 26 28 28 23
33 35 33 27 23 31 26 22 16 14 16 16 15 17 19 17 12 5 7 10 10 6 9 13 14 15 15 17 20 23 24 26 25 24 23 24 27 31 29 15 26 22 22
40 39 34 31 25 25 24 16 13 16 21 21 16 16 13 8 9 11 11 10 8 8 11 10 11 13 15 19 21 24 29 26 27 26 24 27 28 28 28 29 22 26 22
40 34 30 32 31 27 21 14 17 21 20 21 20 15 14 17 18 20 19 14 7 11 14 13 14 16 18 22 27 28 25 26 26 26 25 29 25 24 22 23 26 23 24
34 34 35 35 32 27 23 22 24 23 25 26 22 20 18 21 19 17 16 17 15 12 12 18 20 24 27 27 25 24 24 23 23 24 24 24 26 23 22 23 20 24 26
26 31 33 30 26 23 24 24 27 30 31 28 24 24 21 20 18 19 20 18 14 18 23 24 26 27 24 24 21 20 17 16 19 22 23 23 24 18 15 16 17 21 25
20 23 23 22 23 24 22 24 30 29 29 28 27 26 25 24 21 21 19 20 19 21 26 24 22 22 21 19 18 18 19 20 22 23 24 21 15 14 16 15 18 18 24
19 20 24 26 28 27 29 28 22 24 25 25 27 28 27 24 22 18 18 17 23 19 21 21 20 19 18 18 20 21 24 25 17 20 19 17 14 13 12 13 12 13 16
23 24 27 29 30 29 29 26 25 24 26 28 29 27 25 22 17 20 18 12 18 22 17 17 19 17 17 20 21 23 18 16 17 15 14 10 11 14 16 18 21 24 24
28 28 30 31 30 28 24 22 27 26 30 30 28 23 18 14 17 15 12 14 20 19 18 19 19 16 18 21 21 22 14 12 10 9 10 13 16 19 23 26 29 27 27
30 31 32 34 32 30 29 28 29 26 30 29 25 19 14 15 13 14 15 15 18 20 21 20 18 17 18 21 21 19 13 14 13 12 14 17 19 22 24 23 25 28 28
31 32 36 38 38 35 32 28 31 28 25 24 20 15 10 11 16 15 13 18 20 21 21 20 17 15 21 23 23 19 16 17 16 17 21 18 19 20 22 26 25 25 27
24 29 34 36 34 31 30 26 28 30 28 22 15 7 12 13 15 11 18 22 22 21 21 17 16 17 21 23 23 21 20 22 25 23 21 16 19 22 25 21 24 26 27
8 9 15 28 29 28 25 23 29 30 23 16 8 14 13 14 14 16 16 17 19 21 19 19 21 23 25 25 24 23 22 23 23 22 21 16 20 21 21 22 23 25 28
11 5 8 12 18 22 23 26 26 21 16 15 18 13 16 15 7 14 14 17 19 21 23 24 24 23 23 23 23 23 21 22 21 21 20 18 21 23 23 24 25 24 25
11 8 3 5 8 12 20 19 18 17 19 21 15 8 6 1 7 8 14 16 18 21 24 26 27 24 24 25 22 23 23 24 20 21 23 20 23 23 24 25 24 25 23
9 6 2 4 10 16 18 20 22 20 16 11 7 3 3 4 9 12 16 22 23 22 23 24 24 24 26 26 26 24 26 20 20 20 20 19 19 22 24 24 26 25 21
4 7 13 16 18 19 20 21 19 17 14 8 7 3 4 6 12 14 21 22 23 25 22 24 22 25 28 28 24 25 23 21 21 24 22 20 20 21 21 23 25 23 19
13 18 18 19 20 18 17 19 19 15 10 7 0 11 8 8 16 23 24 21 19 20 18 21 24 25 28 26 21 20 21 20 21 22 18 18 21 21 20 23 20 16 16
14 12 14 18 17 15 14 15 12 9 3 13 19 10 11 19 22 18 16 19 23 22 21 25 28 30 26 24 21 19 20 20 22 20 19 18 17 17 17 16 13 12 14
13 12 10 11 8 5 2 4 9 17 22 14 8 14 20 17 14 15 19 22 23 22 24 26 28 27 26 24 22 22 22 19 21 22 19 19 16 13 17 13 12 12 15
12 8 5 6 9 12 12 8 6 8 11 11 16 18 16 15 17 20 20 18 19 23 26 26 29 31 28 24 22 23 23 22 23 21 22 19 19 20 19 14 15 14 15
10 9 9 7 4 3 5 7 7 10 15 17 16 15 17 18 19 19 20 21 23 25 29 30 29 27 28 27 24 24 25 25 24 23 20 20 25 26 19 15 16 16 15
9 8 10 9 8 7 8 12 15 16 17 18 19 20 20 21 22 23 25 21 19 21 21 22 23 26 26 25 28 23 24 24 25 26 28 29 27 25 19 15 18 16 14

GFSMW_850_spd_048.txt.gz
Wind_Speed
42 41 41 40 38 32 29 30 32 35 31 29 26 25 24 23 21 18 13 11 11 11 11 9 8 7 8 12 15 14 16 18 22 25 28 31 10 22 10 8 17 21 24
38 44 45 43 39 32 29 27 28 29 29 27 26 25 22 22 20 17 16 15 14 12 11 8 7 10 11 14 14 17 19 22 23 26 28 13 27 6 23 23 15 28 22
46 45 47 43 39 37 31 26 24 25 26 26 26 25 22 20 21 18 18 17 15 11 8 8 10 12 14 15 17 21 24 25 26 25 18 13 9 32 24 24 23 16 25
45 45 46 44 41 38 34 30 27 26 24 28 29 26 24 23 18 16 16 16 14 10 9 13 12 13 16 18 22 24 24 26 28 25 21 20 22 24 25 19 23 24 20
48 47 48 45 43 40 37 32 29 25 22 29 27 22 22 18 15 18 18 16 14 13 12 11 11 16 18 19 20 22 25 29 28 26 25 24 23 23 25 31 27 24 22
43 43 44 42 42 37 34 29 26 20 21 27 23 18 18 19 20 21 20 17 18 16 16 15 16 18 18 19 21 25 27 27 27 25 23 22 22 21 24 28 26 25 26
40 39 41 38 33 33 32 30 22 21 22 26 22 19 19 21 21 20 22 22 21 21 16 12 16 18 22 22 24 25 25 23 22 21 21 21 20 20 25 23 25 26 27
36 41 42 37 35 34 33 28 23 22 25 23 23 21 22 23 22 23 26 26 25 19 19 17 17 23 23 25 26 24 23 22 23 24 24 24 23 21 17 14 18 20 22
25 37 40 39 35 32 31 28 24 25 25 25 25 27 26 26 24 24 26 26 21 19 12 14 18 25 27 26 24 24 22 23 26 28 22 18 16 14 16 14 14 16 19
31 36 37 37 34 28 23 22 24 26 26 30 31 31 28 24 23 24 24 20 19 14 14 17 19 24 23 24 24 23 22 25 22 18 18 17 11 11 13 14 14 18 20
26 28 28 30 29 26 26 26 24 24 24 32 30 27 26 25 23 21 18 15 15 17 21 16 21 22 23 23 22 22 22 26 20 16 12 11 13 16 20 21 22 23 26
25 24 25 27 28 29 29 29 28 25 28 32 31 32 30 26 21 17 16 19 20 18 12 20 19 22 23 21 21 21 23 27 20 18 17 16 17 20 23 24 26 24 24
33 32 32 34 35 36 36 35 33 28 29 31 34 34 28 22 18 19 15 21 19 8 17 19 20 23 21 20 20 24 26 26 22 21 20 18 22 26 23 22 23 25 26
35 35 37 39 39 40 38 35 29 27 32 36 34 29 24 20 16 16 15 13 6 14 17 17 20 20 19 20 23 24 26 24 22 23 22 24 24 24 22 22 25 24 25
31 35 37 38 40 39 38 35 32 31 34 33 28 22 18 18 18 16 15 10 9 11 14 18 22 22 21 22 24 25 24 21 22 25 26 23 23 23 23 24 22 23 26
2 19 30 31 33 37 36 35 35 32 30 27 23 19 17 21 17 14 13 9 8 12 18 21 22 24 24 25 23 23 24 23 22 23 23 23 23 24 23 23 23 23 26
10 7 5 11 25 27 28 31 31 28 25 22 16 17 22 20 16 11 7 5 12 19 17 22 23 23 25 25 23 23 25 25 24 24 25 23 24 22 22 23 22 23 25
12 10 8 10 16 19 22 23 25 27 24 20 22 21 17 13 10 5 7 21 14 13 22 23 22 24 24 25 23 23 25 26 23 27 26 20 21 23 23 22 23 24 24
7 6 7 11 18 20 22 26 29 25 24 23 21 18 15 6 10 23 19 9 16 21 23 23 26 24 25 23 23 25 27 24 24 24 21 20 23 21 20 22 24 24 23
8 6 10 8 16 21 26 28 27 26 24 19 14 6 10 24 17 9 12 18 21 22 18 18 20 21 22 24 25 25 24 24 21 20 20 19 19 18 20 22 23 24 19
13 13 15 13 19 23 25 25 23 20 15 9 3 18 19 7 7 13 18 21 20 18 19 22 21 22 24 25 26 26 24 23 21 20 20 18 19 19 19 20 20 21 18
18 17 18 21 19 17 13 8 6 8 10 18 15 12 8 8 15 20 19 16 18 20 22 25 25 25 26 26 27 27 23 22 23 24 22 19 21 19 17 14 18 17 17
16 14 14 15 13 9 4 2 4 8 9 8 7 7 11 16 18 18 18 19 21 23 26 24 27 28 25 27 28 24 23 22 24 22 19 20 21 19 15 16 18 17 17
16 13 10 9 7 5 6 6 5 6 7 9 12 16 17 17 17 18 20 22 23 25 26 27 28 30 30 29 27 24 23 23 25 25 22 21 22 23 21 20 20 18 16
11 8 8 9 8 5 6 7 9 11 13 15 16 17 18 20 21 22 24 25 26 26 27 25 24 26 28 27 24 25 25 28 24 23 24 25 24 24 26 24 21 20 15
14 13 11 8 7 8 9 9 9 11 15 18 19 21 23 24 26 29 31 29 29 28 28 26 25 26 28 25 24 24 25 26 23 23 26 26 24 24 26 24 23 19 16

GFSMW_850_spd_051.txt.gz
Wind_Speed
32 34 35 34 34 33 34 34 32 33 33 32 31 30 28 26 23 20 17 14 13 15 15 13 10 8 9 11 12 11 12 15 19 23 26 18 5 12 5 5 23 12 17
36 38 39 37 36 35 35 36 35 34 35 32 29 30 28 26 22 19 17 15 14 15 14 12 11 11 11 11 12 11 14 18 22 24 24 13 19 8 8 24 17 17 15
41 41 43 43 40 39 37 32 35 35 33 32 31 29 28 25 24 22 22 19 17 17 14 11 10 10 10 13 12 15 18 21 23 24 21 10 7 24 17 21 13 18 20
41 44 46 46 45 44 40 36 35 36 36 34 32 32 31 31 26 24 22 19 18 16 13 12 11 10 12 14 15 17 19 23 24 25 23 20 19 16 17 13 23 20 20
46 48 48 46 45 45 43 40 39 35 35 35 34 33 32 28 23 20 20 20 20 19 16 14 14 14 14 16 19 18 20 24 25 23 22 21 21 20 22 25 20 25 26
47 48 47 45 46 46 44 42 40 36 35 33 32 33 32 27 23 23 24 22 22 20 18 17 16 12 12 15 18 21 23 24 22 21 19 19 20 20 20 26 30 26 22
45 47 49 49 49 48 43 43 42 33 29 31 32 32 28 24 24 23 23 23 23 21 22 22 15 10 12 17 17 23 25 21 20 20 21 22 22 22 21 21 23 22 22
41 46 49 50 49 47 45 42 42 31 29 29 27 27 24 22 22 21 22 23 25 27 27 22 17 17 19 18 22 28 20 18 19 20 22 20 18 17 15 17 19 21 18
36 42 44 47 48 45 40 39 39 29 26 26 25 25 23 22 23 24 25 27 30 30 29 20 18 18 16 16 21 19 17 17 18 22 21 19 17 16 16 15 15 17 21
25 35 40 41 41 38 36 34 29 26 25 26 26 25 26 26 27 28 28 30 34 31 22 19 16 14 14 15 18 17 18 18 20 23 21 17 14 14 15 17 19 21 21
23 25 28 34 35 38 35 31 27 26 26 27 28 29 29 30 28 27 30 32 31 18 23 22 12 12 12 17 19 18 19 20 21 23 23 18 16 16 17 20 23 24 24
14 16 19 23 30 33 32 32 29 29 28 29 29 30 33 32 32 31 31 29 15 26 15 10 9 12 14 17 17 17 19 21 22 24 22 20 20 20 19 24 25 23 21
19 20 23 24 26 30 33 33 31 32 30 29 31 34 34 31 32 30 26 21 21 18 17 8 12 13 14 16 17 18 20 21 22 23 21 21 21 23 24 23 23 23 24
26 27 29 30 31 34 33 27 29 33 32 32 32 35 34 32 28 21 23 18 17 7 6 11 10 12 18 17 20 19 20 20 21 22 21 23 25 26 21 23 22 23 23
23 27 29 31 31 33 32 29 30 32 32 33 33 32 28 24 22 21 17 16 13 10 6 8 15 20 22 21 20 19 19 20 20 20 20 23 26 23 21 22 22 22 23
2 11 23 27 31 32 32 28 32 33 29 31 28 27 24 20 17 18 18 17 9 8 11 23 22 19 20 19 20 20 21 18 20 22 23 23 24 23 21 23 22 22 22
9 7 3 7 17 24 27 28 25 26 26 24 25 22 18 19 20 18 14 10 8 21 18 17 18 18 21 20 20 21 19 19 22 26 24 24 25 25 19 21 23 23 22
9 6 4 2 5 11 17 20 21 22 22 24 24 23 23 21 14 8 4 18 17 11 12 15 18 23 22 22 22 20 19 22 25 25 24 24 25 20 21 23 23 22 22
6 4 2 4 7 11 16 17 18 21 24 24 23 20 16 10 4 13 20 25 10 11 15 20 22 22 21 19 18 19 21 23 26 23 24 23 22 20 21 21 21 22 22
4 4 4 4 7 10 14 18 22 24 23 20 16 11 2 10 18 27 11 9 13 19 23 25 21 21 22 20 20 21 23 26 27 23 23 22 22 19 19 20 21 23 20
7 7 8 9 11 15 18 21 21 18 15 8 5 10 19 18 13 9 11 16 22 24 23 24 23 23 24 24 23 23 26 27 28 25 24 23 22 22 20 19 21 19 18
11 11 14 16 17 14 9 10 7 4 10 11 15 14 10 9 11 15 19 20 21 22 24 25 27 27 27 26 26 26 26 28 26 26 24 22 20 25 22 20 18 15 18
17 16 16 17 15 9 5 0 2 3 6 6 6 8 11 14 16 18 20 21 22 25 27 27 30 31 29 28 27 27 27 25 26 26 25 25 23 23 23 21 19 17 18
16 14 12 10 8 6 5 5 4 4 5 8 11 13 15 16 17 19 21 24 25 28 30 32 33 32 31 28 26 26 26 24 25 28 28 25 26 26 25 24 24 22 20
14 11 9 9 10 7 4 2 3 5 7 10 12 14 17 19 22 24 26 28 30 30 33 35 35 35 35 32 28 27 27 26 25 26 27 30 24 28 28 26 24 24 24
14 13 12 10 7 3 1 3 6 9 12 15 18 21 24 26 27 31 36 35 35 36 36 36 34 36 39 40 39 38 27 27 23 23 27 28 27 27 27 26 23 22 22

GFSMW_850_spd_054.txt.gz
Wind_Speed
20 25 28 26 25 28 27 28 28 26 25 28 29 28 27 27 25 22 16 17 17 16 17 17 14 12 11 9 8 8 8 10 13 17 20 13 15 8 12 7 22 16 16
28 29 29 31 30 29 26 28 29 29 27 28 29 29 26 27 25 23 19 19 18 17 16 15 14 14 11 8 8 7 8 11 15 19 19 10 12 6 9 14 14 15 15
31 31 33 34 32 33 31 28 28 29 29 30 30 30 30 32 29 25 23 22 19 17 17 16 16 13 10 10 8 8 10 12 17 20 19 8 4 19 9 19 15 13 19
34 33 35 37 38 37 34 32 32 31 31 33 33 35 34 33 30 27 23 21 20 20 19 18 15 12 11 10 9 9 12 15 19 22 20 17 15 8 9 8 13 19 20
39 39 40 39 39 39 36 34 34 34 34 35 36 36 35 34 30 25 23 21 22 22 20 18 16 14 13 11 8 10 14 18 20 20 16 15 15 15 16 19 11 17 18
43 43 41 41 41 42 41 38 36 35 36 36 36 37 37 35 29 23 23 24 25 24 23 20 19 19 17 13 13 19 15 20 25 20 16 16 16 17 17 20 21 16 23
43 42 41 42 42 42 43 39 41 41 39 39 39 39 37 34 25 23 24 24 26 26 26 25 25 25 23 19 14 18 21 20 23 18 18 18 17 16 15 16 17 21 22
45 44 44 43 44 43 42 40 41 41 42 42 39 39 39 31 24 23 21 21 24 24 26 28 27 25 18 14 18 17 19 19 17 16 16 16 16 16 15 14 14 19 17
39 46 44 46 46 44 44 42 41 41 42 42 37 36 36 26 26 22 22 23 26 28 30 31 31 22 21 18 18 16 15 15 16 16 17 18 17 14 12 11 11 14 21
25 34 40 43 45 44 45 44 43 42 40 33 34 25 23 24 25 26 28 29 29 31 33 32 23 22 20 12 10 16 14 15 15 16 16 17 16 13 12 13 14 17 21
13 22 27 32 34 36 38 40 38 39 37 32 26 24 25 27 30 31 31 30 30 32 31 22 22 22 14 13 9 13 17 16 15 16 15 18 16 16 16 17 18 21 23
9 14 17 20 22 26 28 28 31 33 30 26 24 24 27 31 33 36 31 30 30 30 26 25 21 16 6 7 12 18 15 15 16 15 18 18 17 17 17 20 23 22 22
9 11 14 16 16 18 21 27 29 27 23 22 25 27 30 33 33 30 28 26 26 24 16 15 15 10 8 10 16 15 14 14 16 18 18 18 18 20 21 24 23 21 21
15 16 17 19 21 23 25 24 23 21 22 24 26 29 31 29 28 26 23 22 23 18 15 13 9 4 13 14 14 14 15 18 18 18 19 19 19 20 23 25 22 21 22
17 20 22 20 20 21 21 20 19 22 22 23 26 27 25 22 26 21 21 22 17 11 12 7 12 15 14 18 14 18 20 18 19 18 19 20 22 21 24 25 23 22 24
7 4 10 12 15 18 19 20 19 20 21 20 20 19 21 23 20 21 19 16 10 12 11 15 15 22 14 16 19 21 22 20 20 19 20 22 24 23 24 24 27 21 23
14 12 10 6 2 4 8 10 12 12 14 14 15 17 19 19 18 16 13 14 17 12 16 23 22 13 15 18 23 23 24 24 22 20 21 24 24 22 25 26 22 23 24
12 11 10 9 7 3 2 5 7 10 13 13 15 16 17 17 15 15 8 7 16 17 29 14 12 16 19 23 24 23 24 24 22 21 22 25 24 24 25 22 22 24 23
11 10 8 6 3 1 2 5 8 10 11 13 15 15 16 15 9 5 9 19 26 18 11 14 18 22 25 22 22 22 22 24 24 23 24 25 26 24 23 23 22 22 22
7 6 5 4 3 4 3 5 10 12 15 18 18 15 8 2 11 21 20 14 12 14 18 22 24 25 26 25 25 23 25 26 27 27 27 27 26 24 23 25 24 24 22
7 8 8 8 9 8 6 11 16 17 15 11 4 7 13 15 14 10 10 14 18 21 23 25 25 26 26 27 27 27 28 29 30 29 29 28 23 24 24 26 26 25 20
12 12 14 17 17 15 11 14 11 6 3 7 6 6 6 7 10 13 16 18 20 22 24 27 29 28 27 27 29 28 28 29 29 31 30 28 22 22 25 24 26 24 21
18 18 18 21 19 14 10 9 7 3 1 1 2 4 7 9 11 13 16 19 21 24 27 29 33 36 36 33 30 29 30 30 30 30 30 27 24 25 26 27 27 24 24
19 18 17 16 15 10 7 5 3 1 3 4 6 9 11 14 16 19 22 25 27 30 32 35 37 39 41 40 37 32 28 28 29 31 29 27 26 27 29 28 27 28 25
19 15 12 11 10 6 4 2 1 3 6 8 11 13 16 20 23 25 27 30 31 31 34 35 37 38 42 43 39 37 35 34 35 34 27 25 27 29 30 29 26 29 25
16 13 11 9 8 4 2 2 4 6 9 12 16 19 23 25 28 31 33 31 32 32 32 31 30 35 33 34 36 35 34 39 33 35 28 25 26 27 27 28 26 24 26

GFSMW_850_spd_060.txt.gz
Wind_Speed
18 18 20 21 24 26 25 25 24 21 18 19 21 20 21 22 22 22 25 23 21 22 21 20 18 19 19 18 15 13 9 7 8 5 6 7 6 7 8 9 8 9 9
18 19 21 22 24 27 28 26 24 23 23 20 21 21 23 22 21 24 26 24 25 24 22 19 20 21 19 19 18 14 10 8 9 4 6 6 7 6 10 11 11 11 10
22 22 24 26 25 27 27 27 25 23 23 21 19 19 18 19 23 22 27 27 27 24 20 21 22 23 22 19 19 16 13 7 7 6 3 7 10 13 10 12 10 12 10
23 24 25 27 28 27 26 27 26 25 25 25 21 22 21 20 19 21 28 28 27 24 24 23 26 25 23 19 21 18 14 12 9 8 10 11 10 8 10 9 10 10 11
25 27 27 27 26 26 26 26 26 26 25 25 26 24 23 18 18 22 27 27 27 26 26 27 27 27 27 25 24 23 19 18 12 7 6 9 11 11 12 14 11 13 15
25 26 26 25 27 27 27 29 28 27 26 27 29 30 24 22 23 25 26 27 28 25 26 30 29 28 28 29 27 28 25 23 15 15 16 11 11 12 12 14 15 17 16
26 25 26 30 29 29 29 30 30 30 29 31 30 31 30 29 24 27 29 31 31 30 30 32 30 30 31 29 32 27 25 20 20 20 9 13 11 11 11 13 15 16 15
23 28 28 28 29 30 30 32 33 31 29 31 31 31 30 25 22 20 31 33 33 32 32 30 31 30 32 33 30 28 22 22 18 15 13 13 10 11 11 12 14 15 16
14 22 27 26 26 26 29 30 30 28 27 30 28 31 32 26 21 27 33 31 28 31 27 28 31 33 29 33 29 25 22 19 14 13 15 13 11 12 11 11 12 14 18
4 10 17 25 25 24 22 22 24 24 23 24 27 31 32 28 33 33 30 27 28 31 29 30 29 30 35 32 29 25 22 15 13 15 13 13 12 13 12 12 13 15 18
1 4 8 12 17 19 19 18 19 19 19 20 21 26 26 26 27 29 27 24 27 32 27 24 25 28 34 29 24 21 14 15 15 14 15 15 14 14 14 14 15 17 18
1 1 3 6 8 10 11 12 13 14 15 15 17 19 18 19 22 21 18 21 30 30 26 25 19 32 32 27 26 12 14 15 14 16 15 17 16 17 16 17 18 19 19
3 2 4 5 6 7 8 9 10 10 10 13 15 14 15 16 18 21 24 26 28 26 28 20 27 29 22 18 11 12 14 15 16 16 18 18 18 19 19 20 20 20 21
7 6 7 7 8 8 10 9 8 11 11 10 10 12 13 13 13 14 16 16 10 14 20 25 19 18 15 12 13 16 14 17 17 18 19 20 21 22 22 22 22 22 23
2 6 8 8 8 8 7 9 8 8 9 7 8 7 7 5 7 8 9 12 12 11 15 15 16 11 9 13 19 18 20 17 19 20 21 23 24 26 27 25 23 22 24
6 6 8 10 10 10 9 7 6 7 7 7 5 5 4 5 5 6 9 9 11 13 16 13 6 11 15 18 19 19 18 20 20 23 24 25 28 31 30 30 30 28 26
11 12 12 12 12 12 11 11 11 11 10 9 10 8 8 8 9 10 10 11 11 8 4 9 14 15 20 19 12 13 19 20 22 26 27 28 28 30 29 28 29 30 30
13 13 14 16 15 15 15 15 14 14 13 12 12 11 11 11 11 10 8 3 2 7 11 14 18 14 10 13 15 19 24 25 25 26 27 29 30 29 30 27 27 27 27
13 13 14 15 16 16 16 15 16 15 14 15 15 13 10 6 5 3 1 5 8 10 10 7 7 9 12 19 21 23 26 25 27 28 29 30 31 31 32 35 33 31 29
13 14 15 16 16 17 17 18 19 18 16 15 13 12 9 5 1 4 4 2 2 3 6 10 13 17 19 21 22 23 26 28 28 29 30 32 35 36 35 38 39 36 33
17 16 16 17 17 18 18 20 19 17 16 14 12 7 3 1 1 1 1 3 5 9 12 15 17 19 19 21 25 25 27 26 30 30 33 34 33 35 37 34 39 40 33
19 18 19 19 18 18 18 18 16 15 13 9 5 4 3 2 1 1 4 6 6 10 12 15 16 14 15 18 21 24 25 26 28 32 34 34 35 34 34 35 35 36 36
20 20 21 21 18 16 16 17 15 12 10 8 5 4 2 0 2 4 7 7 9 11 11 12 13 13 15 16 18 21 26 29 31 33 35 37 34 36 36 32 34 34 37
22 22 22 21 19 17 16 13 12 9 7 6 5 3 1 3 6 7 7 7 10 11 12 12 12 14 15 16 20 26 27 30 33 32 32 33 33 37 36 29 27 31 33
22 21 21 21 20 18 16 12 10 9 7 5 3 1 3 4 5 7 8 8 11 13 13 12 14 17 17 18 27 28 29 31 35 34 30 28 28 28 27 25 24 25 29
24 22 21 22 21 17 15 13 11 9 6 3 2 3 4 6 5 5 5 13 11 12 14 14 16 18 20 24 26 29 30 29 31 27 23 27 28 28 24 25 23 24 23

GFSMW_850_spd_063.txt.gz
Wind_Speed
17 19 20 22 23 23 24 23 23 22 20 17 17 17 18 18 19 18 19 20 19 21 21 17 19 20 18 15 15 13 12 9 10 7 7 9 11 7 7 8 9 9 11
19 20 23 24 25 26 25 23 22 22 20 18 18 18 18 19 19 18 18 20 20 23 23 21 20 22 18 18 19 16 11 11 10 6 7 5 6 6 8 9 10 12 12
22 23 25 26 26 27 27 25 24 23 21 19 18 18 18 19 20 20 19 23 23 24 23 21 24 24 24 24 22 19 16 13 11 9 4 4 4 15 10 11 11 11 12
22 24 26 28 28 28 28 27 26 25 24 23 21 22 21 22 21 21 21 28 23 27 24 23 26 27 25 28 23 20 17 16 15 12 11 9 8 6 10 7 12 14 13
26 26 28 28 28 28 29 29 28 27 25 24 24 22 22 20 18 19 21 25 21 24 23 25 32 28 28 29 26 21 19 16 17 23 18 12 15 12 14 14 12 12 13
25 26 26 26 27 27 28 28 28 29 28 26 26 26 24 23 21 22 24 24 21 25 25 29 30 28 31 29 29 22 18 25 24 20 20 17 15 11 14 16 17 18 19
24 25 27 29 29 31 31 29 29 29 29 29 28 28 28 25 25 23 23 18 22 25 29 27 30 32 33 29 23 22 26 24 21 20 19 18 13 15 12 14 17 19 17
23 29 29 30 30 31 31 31 30 29 30 31 29 27 27 27 26 28 23 26 24 28 25 28 29 31 31 26 24 30 27 25 24 22 21 18 17 13 12 14 15 19 18
14 23 29 29 29 29 31 32 29 28 28 29 28 29 29 29 26 30 29 27 28 31 29 30 28 28 23 27 32 28 28 27 25 23 20 18 17 13 15 14 15 17 20
3 10 20 28 27 27 27 27 27 27 26 27 29 30 32 31 29 27 28 30 29 25 22 23 28 29 30 34 27 29 28 24 24 20 18 19 14 15 16 15 16 16 19
4 5 9 18 25 24 23 25 25 24 23 24 27 28 31 28 28 28 30 29 26 23 22 27 27 26 27 20 26 26 24 23 19 19 19 15 16 17 17 17 17 18 18
2 4 6 9 14 20 23 22 22 21 21 21 20 25 23 20 21 18 20 22 23 23 25 27 24 13 14 20 26 20 16 12 17 19 14 18 17 20 19 20 21 21 21
5 5 7 8 10 13 16 17 16 16 16 16 17 23 20 16 18 20 20 21 19 21 23 22 17 18 20 21 16 16 13 14 16 13 17 21 21 22 21 22 24 24 24
9 9 8 10 11 12 13 14 15 18 21 24 23 19 17 15 15 15 15 14 14 12 11 15 19 18 13 12 13 11 15 15 11 18 21 22 22 23 23 25 27 28 29
7 9 10 10 11 13 16 20 17 16 15 13 14 14 13 12 9 8 8 8 9 10 8 10 14 10 12 10 13 16 16 16 21 18 21 22 24 26 29 31 33 30 30
5 6 10 12 12 12 10 12 12 12 13 12 11 11 8 8 8 7 5 6 9 8 8 9 9 8 9 13 14 17 17 19 16 19 21 24 26 30 33 34 34 35 36
7 9 12 13 12 11 12 12 10 11 11 10 11 11 12 12 10 10 9 7 6 7 6 6 8 11 13 16 15 11 14 15 17 20 23 26 28 31 31 33 36 37 38
12 13 14 15 15 15 15 16 16 16 16 16 16 16 15 13 12 9 9 7 6 5 5 7 9 10 7 13 13 15 19 22 22 23 25 28 31 32 33 36 38 38 36
15 17 17 18 18 18 18 18 18 17 17 17 16 16 14 12 9 8 7 5 3 3 2 2 1 4 5 14 19 21 20 21 22 23 25 27 31 34 36 38 40 41 43
15 17 17 18 18 18 18 19 19 18 17 17 16 14 12 11 9 3 1 3 4 3 3 3 4 7 7 13 20 23 25 26 27 28 28 30 32 33 35 36 39 42 44
18 18 17 17 17 18 19 20 19 18 17 16 15 12 7 6 7 7 6 5 4 2 3 5 6 7 8 9 20 24 25 25 29 32 35 34 31 33 36 40 42 42 41
20 19 19 18 18 18 18 19 18 17 16 14 12 10 9 8 7 6 4 2 1 2 3 8 8 7 8 11 18 22 25 26 30 33 35 36 37 39 40 40 41 40 42
22 20 21 21 19 18 17 18 17 16 15 13 11 9 9 7 6 5 2 2 2 3 5 6 6 7 9 9 16 24 25 27 28 31 34 37 38 37 36 35 35 36 35
23 23 23 22 21 19 18 17 16 15 14 13 11 10 9 6 4 2 1 2 5 5 6 6 6 8 11 10 19 25 26 26 29 31 34 33 30 28 29 32 33 30 28
24 23 23 22 20 19 18 16 15 14 13 12 10 8 6 5 2 3 5 5 9 8 8 8 10 13 14 16 21 23 25 27 29 30 28 26 26 28 29 30 30 28 27
27 25 23 23 21 20 18 16 14 13 13 11 9 7 5 4 3 2 7 9 10 10 11 11 12 14 17 19 21 23 24 24 25 22 22 25 25 25 25 27 28 29 25

GFSMW_850_spd_066.txt.gz
Wind_Speed
27 20 30 23 25 29 31 31 28 27 26 30 25 22 22 23 22 19 20 22 20 22 23 23 21 21 20 21 18 17 17 16 16 19 14 12 16 16 12 15 14 12 14
29 27 28 27 27 33 28 31 32 30 28 22 24 23 23 20 24 25 20 24 24 22 25 22 21 23 19 22 20 21 20 18 20 17 9 11 16 17 12 10 15 16 17
28 30 32 32 35 36 37 36 30 30 29 27 21 22 23 21 23 26 25 27 30 29 24 22 24 25 22 24 25 26 23 20 22 22 15 9 9 11 4 15 12 15 18
26 29 31 33 34 34 34 33 33 31 30 29 28 27 26 27 26 26 26 28 28 25 26 24 21 26 27 24 28 30 29 26 25 25 22 20 13 8 8 9 9 17 23
25 32 33 33 34 34 35 32 32 31 30 26 27 26 26 24 24 24 25 24 25 22 23 23 22 24 28 29 31 33 30 26 27 26 27 20 15 13 13 18 15 12 19
29 28 33 33 34 33 34 34 32 32 30 30 29 27 28 27 24 24 23 27 27 23 22 21 26 20 32 33 33 33 28 28 25 28 26 22 16 17 12 18 20 18 19
29 31 33 37 36 37 37 36 36 35 32 31 30 28 27 26 26 24 24 31 27 24 20 29 29 29 29 30 31 32 34 30 30 29 27 23 17 19 20 19 21 22 23
28 28 32 37 38 39 39 39 38 37 35 35 32 28 26 29 25 28 27 35 32 29 24 26 28 25 24 30 34 34 33 31 30 30 27 20 19 20 21 14 18 23 24
17 32 30 30 36 38 40 40 38 35 35 36 37 36 30 35 29 34 36 38 35 31 24 26 28 26 27 27 28 31 32 28 29 28 23 19 19 16 15 14 20 21 23
4 13 29 35 33 35 37 38 36 34 34 34 36 38 37 37 35 33 35 33 31 31 27 24 27 30 28 26 28 29 26 26 30 25 20 19 19 18 16 16 23 23 24
7 3 7 16 34 32 34 37 37 35 32 33 36 34 36 37 34 30 31 28 28 27 27 24 28 25 24 26 25 24 23 27 26 20 18 17 17 18 14 19 22 23 24
7 8 7 9 11 29 29 32 33 31 31 31 30 34 33 36 25 26 28 22 26 23 26 24 20 22 20 18 17 22 25 20 16 17 16 17 15 14 20 23 26 27 28
8 11 8 8 9 13 18 22 28 25 27 26 25 28 31 21 17 18 18 19 19 20 20 17 18 17 17 18 23 20 14 12 13 15 17 14 14 20 24 26 26 28 30
11 8 13 11 10 11 12 12 18 20 24 23 29 32 27 16 16 17 18 18 19 17 15 15 16 17 19 16 13 11 12 13 16 15 13 16 21 23 23 26 27 30 31
7 9 9 16 15 18 22 25 25 26 26 22 18 16 16 16 16 17 15 15 13 12 12 11 12 13 13 9 9 10 13 16 17 17 18 19 19 21 24 28 32 34 37
5 6 8 18 19 22 22 20 21 22 20 18 17 17 16 13 13 12 11 9 9 11 10 9 8 9 9 8 10 12 15 18 17 14 12 17 21 24 26 30 32 35 39
7 5 8 21 19 19 18 18 17 16 16 16 16 13 11 11 11 11 11 9 10 10 9 8 7 9 9 9 11 10 9 11 11 14 18 22 24 26 29 33 36 37 36
10 10 11 14 14 12 11 13 17 17 16 16 16 16 16 15 15 13 13 13 12 10 9 9 7 7 4 4 8 10 12 15 17 18 19 21 24 25 27 32 37 39 40
15 15 17 18 18 15 14 17 18 19 19 18 18 18 17 17 17 13 12 12 10 9 6 5 5 4 6 9 12 16 19 20 21 22 24 27 30 32 34 38 42 45 47
18 19 20 21 23 23 24 24 23 21 20 19 20 18 16 15 13 12 10 8 8 9 8 8 9 9 11 11 15 19 22 24 25 25 27 28 30 33 35 36 39 44 47
22 22 22 23 23 23 24 23 23 22 22 21 19 18 15 11 8 10 10 10 12 12 11 10 10 10 11 15 18 20 22 24 25 26 29 30 31 32 33 33 36 40 40
25 24 24 24 23 23 24 24 24 23 22 19 18 15 14 14 13 13 13 12 8 9 8 9 8 7 11 14 18 22 22 22 26 28 29 30 31 32 31 28 28 28 29
27 26 27 27 25 24 25 25 23 22 22 19 19 17 15 14 13 11 12 10 9 9 11 9 8 7 13 14 19 21 21 23 25 26 28 29 30 28 28 29 30 30 30
27 26 27 27 26 24 22 22 24 22 21 20 17 16 15 14 14 11 11 13 13 11 9 9 9 14 15 18 20 20 22 23 25 26 27 27 26 27 29 29 28 28 29
27 27 27 26 24 24 24 22 22 20 19 18 17 17 16 11 14 13 10 10 9 8 9 12 12 14 14 19 18 21 23 24 25 26 25 23 26 30 30 30 28 28 30
26 25 25 26 24 23 22 20 19 19 20 18 17 15 16 15 10 8 7 6 7 9 9 10 11 13 16 17 19 20 21 21 20 21 20 22 25 28 29 29 30 30 30

GFSMW_850_spd_069.txt.gz
Wind_Speed
20 19 18 19 22 23 28 35 36 37 35 32 34 36 31 24 24 24 24 22 22 25 23 22 23 22 21 21 22 20 19 19 20 16 16 16 16 17 16 13 13 14 16
28 25 26 27 28 35 40 34 34 34 34 40 31 26 28 27 26 26 26 24 22 21 23 24 24 25 24 23 23 24 25 24 25 24 22 20 21 25 24 19 16 16 17
39 35 30 34 34 35 35 33 32 31 33 33 29 31 27 25 27 30 27 24 24 25 23 21 25 27 25 22 24 26 27 30 28 27 21 12 14 19 25 20 16 17 20
42 41 36 36 36 36 33 32 32 31 33 32 33 33 32 30 29 30 29 27 28 28 29 29 29 31 28 25 24 25 27 30 28 26 26 24 13 12 11 12 11 22 22
44 44 39 37 35 35 35 34 35 37 37 34 30 30 30 30 27 28 28 31 32 32 30 30 32 31 31 28 24 21 28 34 30 31 31 29 25 19 13 13 17 14 18
45 44 40 37 35 36 35 34 39 36 33 33 38 35 32 32 34 31 33 34 35 34 33 30 29 29 29 26 25 24 28 35 33 30 23 30 24 23 20 17 22 24 22
43 43 46 47 43 44 45 41 40 41 39 37 36 41 38 36 37 34 35 36 37 37 35 32 29 27 26 25 24 28 27 30 33 31 31 30 24 26 23 24 24 27 27
43 48 49 47 47 48 48 47 44 46 47 45 44 43 42 39 40 37 38 39 41 37 35 34 26 22 22 25 27 26 29 31 30 29 29 23 30 27 26 26 22 23 25
42 45 49 49 48 47 48 47 48 48 49 49 48 43 43 42 44 39 40 39 37 33 33 34 25 23 24 25 22 23 25 28 27 27 26 26 24 22 22 22 23 23 28
37 45 46 49 48 47 45 46 45 45 46 48 48 47 44 42 38 40 37 40 36 26 36 38 27 25 22 21 21 21 23 24 23 23 24 25 24 23 25 21 23 24 26
4 6 20 43 46 48 48 47 47 45 43 42 44 46 45 42 38 37 33 24 31 36 37 32 30 23 20 22 22 20 22 20 20 22 22 21 19 20 20 22 21 21 25
9 5 4 5 36 47 47 48 46 47 45 41 39 41 42 43 31 36 30 32 31 26 22 21 22 21 22 20 21 20 19 19 20 19 17 16 17 20 20 17 18 22 27
19 14 8 6 8 28 38 41 40 34 24 20 30 33 31 25 28 33 39 29 26 22 21 18 17 18 18 20 18 16 18 18 16 14 16 16 18 19 16 20 23 27 30
19 19 14 10 11 12 10 23 24 24 25 28 37 31 26 21 17 24 19 17 17 17 16 17 18 18 16 15 16 16 16 14 13 13 15 17 16 17 20 23 26 26 30
19 22 22 22 19 17 15 13 19 22 21 23 28 27 21 16 15 14 16 15 15 16 17 18 16 14 14 16 15 13 12 12 13 15 16 14 16 16 17 22 26 29 33
15 10 9 28 26 22 20 16 13 18 19 23 23 20 18 14 11 12 13 14 15 15 14 14 13 13 13 12 12 10 11 12 15 14 9 9 13 17 20 24 28 29 29
17 12 9 21 26 27 24 21 17 12 14 14 14 14 13 13 11 12 14 14 12 13 13 12 12 12 11 11 10 11 12 10 8 9 12 15 19 23 26 29 31 33 35
20 17 19 25 27 25 24 22 19 18 16 12 12 12 13 13 14 14 15 15 13 13 14 14 12 11 11 10 9 8 8 10 11 14 17 20 23 25 30 34 37 38 40
21 20 21 24 24 21 18 17 16 17 17 17 17 16 17 19 19 17 16 17 17 17 14 12 10 13 11 11 10 11 12 13 15 17 20 21 23 24 27 31 35 38 38
24 25 22 21 20 19 17 17 22 23 22 22 22 20 20 18 17 16 16 16 14 11 13 15 13 11 11 11 14 15 15 17 18 17 18 19 22 24 25 28 31 36 35
24 24 23 21 20 19 19 22 24 23 22 21 21 21 19 17 15 15 13 14 17 17 16 15 13 13 13 14 16 18 19 18 18 18 20 21 23 24 25 25 25 27 32
24 23 23 23 23 24 23 25 25 24 24 24 22 21 18 16 17 17 18 16 17 18 18 18 16 14 15 17 17 18 19 18 19 21 22 23 23 24 24 25 26 27 28
26 25 25 27 26 25 25 27 27 26 26 24 22 21 19 19 18 19 21 21 19 18 16 14 14 15 16 16 16 17 18 20 20 22 22 22 22 22 24 25 27 27 26
27 26 27 27 25 24 27 28 27 26 25 23 24 25 24 22 21 21 21 21 19 17 16 16 16 17 17 18 19 19 20 20 20 21 21 20 21 22 24 26 27 27 26
26 24 26 26 25 24 25 26 25 24 24 25 24 24 24 24 23 21 18 16 15 14 13 13 14 15 17 19 18 19 20 20 21 22 20 20 22 25 26 27 27 28 28
24 23 24 24 23 23 23 22 22 23 25 24 23 22 20 19 16 15 14 12 11 10 10 12 14 15 17 18 17 19 18 18 19 18 18 19 21 24 27 29 30 30 29

GFSMW_850_spd_072.txt.gz
Wind_Speed
18 15 14 16 19 22 27 25 27 29 37 44 38 39 40 35 29 26 25 25 23 21 21 18 19 20 21 19 17 18 19 19 18 16 18 19 20 19 18 17 17 16 16
23 21 19 19 22 25 29 29 30 33 41 46 44 42 36 32 28 25 27 27 26 25 24 24 25 23 22 22 22 22 23 22 22 24 23 17 23 26 25 23 22 20 19
30 28 27 26 24 28 33 31 36 39 44 45 40 38 31 27 30 29 31 31 29 26 25 26 27 25 25 25 24 24 25 25 24 26 22 11 15 21 27 27 25 23 22
34 31 31 30 30 34 36 37 41 41 45 42 43 40 40 38 36 34 30 32 31 28 27 26 25 25 26 27 27 26 24 26 27 28 33 33 24 12 6 20 25 24 25
42 39 36 34 31 36 39 40 40 39 40 41 41 38 39 36 33 31 31 33 31 30 29 30 28 28 27 29 29 28 26 25 29 31 35 37 34 30 17 12 17 19 17
46 42 36 34 34 37 37 39 40 40 40 41 41 38 38 39 37 34 33 34 34 35 33 32 31 30 30 31 30 31 27 25 28 32 37 39 37 35 31 27 25 29 24
47 47 43 41 41 44 43 41 42 41 39 40 39 39 40 40 37 34 35 34 35 37 36 32 33 34 32 28 27 28 27 27 30 32 38 37 33 32 29 25 26 25 30
46 49 48 46 44 44 44 44 44 42 40 39 40 40 41 42 41 37 35 38 38 38 34 35 34 33 31 29 25 26 27 30 32 34 27 29 28 29 25 26 25 25 29
45 50 49 49 47 45 45 44 43 42 41 41 41 43 45 46 44 43 45 39 39 38 37 34 36 37 33 28 26 24 29 30 28 24 24 24 25 25 23 24 23 25 27
45 50 51 50 49 48 46 44 44 45 44 44 45 46 46 46 47 48 44 45 44 41 39 37 33 39 38 33 27 26 27 28 22 22 20 21 21 23 22 22 22 25 25
38 41 46 50 50 51 51 50 49 47 48 47 46 47 47 48 49 51 49 42 42 37 34 35 36 44 41 31 28 26 29 22 20 20 20 21 21 21 21 21 21 23 25
22 31 43 44 46 50 51 54 52 51 46 41 36 32 40 43 50 49 48 40 29 31 35 38 40 39 31 31 25 26 27 25 21 20 20 20 19 18 18 19 21 19 18
19 20 20 20 35 43 47 47 49 45 35 31 33 30 45 52 47 39 33 33 29 29 31 36 34 28 26 25 29 28 24 21 18 19 19 18 16 15 17 19 16 20 21
25 22 19 15 15 21 37 41 42 41 40 37 29 32 37 31 34 37 39 42 33 36 29 33 28 23 22 24 26 24 22 20 20 19 17 15 15 18 14 16 18 20 22
30 26 21 20 19 19 22 30 38 38 38 38 36 31 31 31 32 30 31 29 25 27 29 25 24 26 24 25 22 19 19 19 19 16 13 15 15 13 16 16 18 21 24
28 29 25 25 23 21 21 26 32 36 38 40 35 31 28 23 21 18 19 22 24 24 26 28 26 24 21 19 19 19 19 18 16 15 16 15 15 16 18 19 23 25 29
26 28 28 30 27 24 23 23 25 26 27 25 25 23 24 21 22 19 21 21 22 24 24 23 20 18 17 17 18 17 17 16 17 18 15 15 17 19 22 24 26 28 30
30 25 22 28 31 28 23 21 21 21 20 19 19 21 21 22 23 22 22 22 22 20 19 18 17 17 18 17 17 17 17 16 15 15 14 15 18 22 25 27 29 30 30
29 26 22 22 28 27 24 22 20 18 19 22 24 24 23 23 22 20 21 21 21 20 20 20 21 20 18 18 18 18 16 14 13 14 16 18 20 22 24 26 28 28 29
24 22 21 21 24 25 23 21 19 19 20 21 21 22 22 21 21 22 23 22 21 23 22 21 19 19 20 19 17 16 14 14 14 15 17 18 18 20 21 23 25 28 30
22 22 21 21 23 23 21 19 18 19 19 18 20 21 20 20 19 20 22 22 22 21 21 20 19 17 17 17 16 16 15 14 15 15 15 16 18 19 21 22 23 25 29
25 24 22 21 20 20 19 18 19 19 20 20 19 18 18 18 18 19 20 19 19 19 20 20 20 19 17 16 16 15 15 15 15 16 17 17 18 19 20 21 23 25 27
26 23 20 19 17 17 16 16 18 19 18 16 16 14 15 15 16 18 19 19 17 17 18 19 18 17 17 16 15 15 15 17 16 17 18 18 18 19 20 21 22 24 24
24 21 19 18 18 18 16 15 16 16 14 15 15 16 17 19 18 16 15 14 16 17 16 16 16 16 15 15 15 16 18 18 18 18 17 18 18 19 19 20 21 22 23
24 21 20 21 22 21 19 18 17 17 17 17 18 17 17 17 18 18 17 17 16 12 12 13 12 13 14 16 18 19 20 19 19 18 17 17 18 19 21 22 22 23 24
25 24 25 27 25 23 23 23 21 20 20 20 20 20 20 19 17 17 16 13 11 11 12 13 14 15 15 18 18 16 17 17 17 16 17 18 20 21 22 23 25 25 25

GFSMW_850_spd_075.txt.gz
Wind_Speed
18 15 12 13 16 18 20 23 24 22 33 41 42 38 37 34 35 34 30 29 26 22 22 20 18 15 16 15 14 14 16 15 13 14 16 18 18 19 18 18 18 17 15
21 19 16 18 19 20 24 29 25 26 32 39 43 38 38 33 34 33 30 27 24 24 20 19 17 18 17 17 18 18 18 17 17 20 20 18 23 26 25 25 24 21 18
24 23 20 19 19 24 25 28 24 25 30 40 41 38 36 34 32 30 28 27 24 21 21 19 19 22 21 21 21 21 21 21 22 26 23 11 18 19 22 27 29 27 24
26 24 21 19 20 23 25 26 25 26 31 43 43 40 42 36 36 30 26 24 24 24 24 23 25 25 25 27 26 24 25 26 27 28 30 31 28 18 15 21 24 29 27
31 28 26 21 21 23 26 27 27 30 33 42 44 42 41 38 37 34 30 27 29 31 30 31 29 28 27 27 26 28 28 30 31 32 31 32 33 36 34 26 24 21 26
34 28 27 25 25 25 27 29 32 34 36 46 47 46 44 41 39 37 36 35 33 34 35 36 33 30 31 31 31 29 30 31 32 33 31 30 31 32 34 34 27 29 25
34 32 32 33 31 32 33 34 35 39 40 47 49 47 48 43 43 41 37 37 37 37 39 38 37 34 34 33 33 31 28 29 31 30 28 30 33 38 40 30 31 30 26
36 36 35 37 36 35 37 39 40 43 44 47 47 45 48 47 45 43 41 39 38 38 38 38 36 36 36 36 34 31 29 28 28 30 28 32 31 25 32 31 30 26 24
38 40 38 38 39 39 41 44 43 42 44 46 47 48 47 46 45 43 40 38 38 39 38 36 35 37 36 37 35 31 30 31 27 29 31 30 23 22 24 26 26 23 21
37 40 40 41 42 42 41 42 44 44 44 45 46 46 45 44 43 42 40 40 40 43 44 41 39 40 39 38 37 37 38 32 30 28 27 24 22 20 22 24 23 21 22
37 40 42 42 42 43 43 44 45 45 46 47 45 44 42 42 42 42 44 43 44 47 42 38 39 36 34 42 38 38 41 31 30 27 26 25 20 22 24 23 22 24 24
31 36 41 43 42 42 43 45 46 48 48 44 40 34 20 32 36 46 45 39 44 41 31 36 42 41 44 44 38 37 34 32 33 29 28 23 23 24 23 21 21 21 22
28 31 37 42 43 43 44 45 46 48 47 45 43 42 43 42 43 46 45 39 39 35 37 43 40 42 39 38 45 42 35 30 28 27 24 21 23 21 20 21 21 21 21
30 33 35 32 33 35 37 42 45 45 46 47 45 45 42 45 45 44 41 41 30 36 40 45 39 38 40 37 34 34 29 31 28 23 22 22 21 19 20 21 22 23 26
26 30 32 29 26 25 26 29 35 38 40 40 41 42 41 44 41 38 36 38 43 41 39 40 36 34 31 36 28 26 29 29 27 23 22 20 22 22 21 23 24 23 25
29 30 32 28 27 24 23 26 29 32 34 35 37 38 36 36 34 32 31 33 38 42 39 35 34 29 24 22 26 30 27 22 21 22 22 22 20 22 23 24 20 21 25
34 35 32 31 30 26 25 26 27 30 33 34 35 36 40 32 27 23 21 20 27 27 26 24 22 24 26 26 23 22 21 21 22 21 20 20 21 21 20 20 22 25 28
31 32 39 37 32 29 25 24 23 25 28 30 34 36 33 23 18 18 19 20 20 21 22 24 25 22 20 19 19 19 20 20 19 19 19 18 18 19 21 23 26 27 27
32 31 39 36 34 30 25 22 21 22 22 21 20 19 18 19 20 23 22 22 22 23 22 20 20 18 17 18 19 19 18 17 17 17 16 16 19 22 23 25 25 25 25
30 32 31 29 27 26 23 22 20 20 18 15 15 15 17 21 22 21 20 20 19 20 20 19 17 18 19 20 18 16 15 16 17 17 18 19 21 21 22 23 24 25 26
30 25 22 21 20 21 22 21 19 18 16 18 18 17 18 18 18 19 19 20 23 22 20 20 20 20 18 18 17 17 16 16 16 18 19 19 19 21 22 23 23 23 25
28 23 20 19 18 19 19 18 17 16 16 15 15 15 15 15 16 17 19 20 20 21 20 20 21 20 20 18 18 17 16 16 17 18 18 19 19 19 21 21 21 22 23
23 22 19 18 17 18 16 15 15 14 13 14 14 14 15 15 14 16 21 21 20 18 19 20 19 19 18 17 17 16 16 16 16 17 18 18 18 19 18 19 21 22 22
21 19 17 16 17 16 14 10 10 11 15 17 17 15 14 15 16 18 17 16 16 16 17 17 18 17 17 16 15 14 14 16 18 18 18 19 19 18 19 20 21 21 22
16 17 17 18 17 15 13 12 11 13 14 14 15 13 12 14 16 16 15 16 16 13 13 15 14 14 15 15 15 16 17 18 18 19 17 17 17 18 19 20 21 22 22
15 16 18 18 18 17 16 15 15 14 12 15 17 16 18 18 18 19 19 17 13 13 12 11 13 14 15 15 16 17 16 16 12 13 14 16 17 18 19 21 22 22 23